Observation data for Welch on 12/09/2018      Previous  Date  Next       Current Mesonet Observations  Soil Data  Daily Summary Page  Observations in Plain Language
KWE2 090600Z 32005KT M02/M02 A3031 RMK A01 T10191020  RH  099%=      5-min Rain = 0
KWE2 090601Z 31005KT M02/M02 A3031 RMK A01 T10201021  RH  099%=      5-min Rain = 0
KWE2 090602Z 31006KT M02/M02 A3031 RMK A01 T10201021  RH  099%=      5-min Rain = 0
KWE2 090603Z 31005KT M02/M02 A3031 RMK A01 T10201021  RH  099%=      5-min Rain = 0
KWE2 090604Z 31005KT M02/M02 A3031 RMK A01 T10201022  RH  099%=      5-min Rain = 0
KWE2 090605Z 31005KT M02/M02 A3032 RMK A01 T10211022  RH  099%=      5-min Rain = 0
KWE2 090606Z 31005KT M02/M02 A3031 RMK A01 T10211022  RH  099%=      5-min Rain = 0
KWE2 090607Z 31005KT M02/M02 A3031 RMK A01 T10211022  RH  099%=      5-min Rain = 0
KWE2 090608Z 31005KT M02/M02 A3031 RMK A01 T10201022  RH  099%=      5-min Rain = 0
KWE2 090609Z 31005KT M02/M02 A3031 RMK A01 T10201022  RH  099%=      5-min Rain = 0
KWE2 090610Z 32005KT M02/M02 A3031 RMK A01 T10201021  RH  099%=      5-min Rain = 0
KWE2 090611Z 32005KT M02/M02 A3031 RMK A01 T10201021  RH  099%=      5-min Rain = 0
KWE2 090612Z 32005KT M02/M02 A3031 RMK A01 T10191020  RH  099%=      5-min Rain = 0
KWE2 090613Z 32005KT M02/M02 A3031 RMK A01 T10191020  RH  099%=      5-min Rain = 0
KWE2 090614Z 32005KT M02/M02 A3031 RMK A01 T10191020  RH  099%=      5-min Rain = 0
KWE2 090615Z 32005KT M02/M02 A3031 RMK A01 T10191020  RH  099%=      5-min Rain = 0
KWE2 090616Z 32005KT M02/M02 A3031 RMK A01 T10191020  RH  099%=      5-min Rain = 0
KWE2 090617Z 32006KT M02/M02 A3031 RMK A01 T10191020  RH  099%=      5-min Rain = 0
KWE2 090618Z 32005KT M02/M02 A3031 RMK A01 T10191020  RH  099%=      5-min Rain = 0
KWE2 090619Z 32005KT M02/M02 A3031 RMK A01 T10191020  RH  099%=      5-min Rain = 0
KWE2 090620Z 33005KT M02/M02 A3031 RMK A01 T10191021  RH  099%=      5-min Rain = 0
KWE2 090621Z 33005KT M02/M02 A3031 RMK A01 T10201022  RH  099%=      5-min Rain = 0
KWE2 090622Z 33005KT M02/M02 A3031 RMK A01 T10201021  RH  099%=      5-min Rain = 0
KWE2 090623Z 33005KT M02/M02 A3031 RMK A01 T10201021  RH  099%=      5-min Rain = 0
KWE2 090624Z 33005KT M02/M02 A3031 RMK A01 T10201021  RH  099%=      5-min Rain = 0
KWE2 090625Z 33005KT M02/M02 A3031 RMK A01 T10201022  RH  099%=      5-min Rain = 0
KWE2 090626Z 33004KT M02/M02 A3031 RMK A01 T10201022  RH  099%=      5-min Rain = 0
KWE2 090627Z 33004KT M02/M02 A3031 RMK A01 T10201022  RH  099%=      5-min Rain = 0
KWE2 090628Z 33004KT M02/M02 A3031 RMK A01 T10211022  RH  099%=      5-min Rain = 0
KWE2 090629Z 33004KT M02/M02 A3031 RMK A01 T10211023  RH  099%=      5-min Rain = 0
KWE2 090630Z 33004KT M02/M02 A3031 RMK A01 T10211023  RH  099%=      5-min Rain = 0
KWE2 090631Z 34004KT M02/M02 A3031 RMK A01 T10211023  RH  099%=      5-min Rain = 0
KWE2 090632Z 34003KT M02/M02 A3031 RMK A01 T10211023  RH  099%=      5-min Rain = 0
KWE2 090633Z 34003KT M02/M02 A3031 RMK A01 T10211022  RH  099%=      5-min Rain = 0
KWE2 090634Z 35003KT M02/M02 A3031 RMK A01 T10201022  RH  099%=      5-min Rain = 0
KWE2 090635Z 35003KT M02/M02 A3031 RMK A01 T10201022  RH  099%=      5-min Rain = 0
KWE2 090636Z 35002KT M02/M02 A3031 RMK A01 T10201022  RH  099%=      5-min Rain = 0
KWE2 090637Z 35002KT M02/M02 A3031 RMK A01 T10201021  RH  099%=      5-min Rain = 0
KWE2 090638Z 34002KT M02/M02 A3031 RMK A01 T10191021  RH  099%=      5-min Rain = 0
KWE2 090639Z 34002KT M02/M02 A3031 RMK A01 T10191021  RH  099%=      5-min Rain = 0
KWE2 090640Z 33002KT M02/M02 A3031 RMK A01 T10201022  RH  099%=      5-min Rain = 0
KWE2 090641Z 33002KT M02/M02 A3031 RMK A01 T10211023  RH  099%=      5-min Rain = 0
KWE2 090642Z 35002KT M02/M02 A3031 RMK A01 T10211023  RH  099%=      5-min Rain = 0
KWE2 090643Z 35003KT M02/M02 A303 RMK A01 T10211023  RH  099%=      5-min Rain = 0
KWE2 090644Z 35003KT M02/M02 A303 RMK A01 T10211024  RH  099%=      5-min Rain = 0
KWE2 090645Z 35003KT M02/M02 A303 RMK A01 T10221024  RH  098%=      5-min Rain = 0
KWE2 090646Z 35003KT M02/M02 A303 RMK A01 T10221024  RH  099%=      5-min Rain = 0
KWE2 090647Z 35003KT M02/M02 A303 RMK A01 T10221024  RH  099%=      5-min Rain = 0
KWE2 090648Z 36003KT M02/M02 A303 RMK A01 T10221024  RH  099%=      5-min Rain = 0
KWE2 090649Z 01003KT M02/M02 A303 RMK A01 T10211023  RH  099%=      5-min Rain = 0
KWE2 090650Z 02003KT M02/M02 A303 RMK A01 T10211023  RH  099%=      5-min Rain = 0
KWE2 090651Z 02003KT M02/M02 A303 RMK A01 T10211022  RH  099%=      5-min Rain = 0
KWE2 090652Z 02003KT M02/M02 A303 RMK A01 T10201022  RH  099%=      5-min Rain = 0
KWE2 090653Z 03003KT M02/M02 A303 RMK A01 T10201021  RH  099%=      5-min Rain = 0
KWE2 090654Z 02003KT M02/M02 A303 RMK A01 T10191021  RH  099%=      5-min Rain = 0
KWE2 090655Z 01003KT M02/M02 A303 RMK A01 T10191020  RH  099%=      5-min Rain = 0
KWE2 090656Z 01003KT M02/M02 A303 RMK A01 T10181020  RH  099%=      5-min Rain = 0
KWE2 090657Z 02003KT M02/M02 A303 RMK A01 T10181019  RH  099%=      5-min Rain = 0
KWE2 090658Z 01003KT M02/M02 A303 RMK A01 T10171019  RH  099%=      5-min Rain = 0
KWE2 090659Z 01003KT M02/M02 A303 RMK A01 T10171019  RH  099%=      5-min Rain = 0
KWE2 090700Z 01003KT M02/M02 A303 RMK A01 T10171018  RH  099%=      5-min Rain = 0
KWE2 090701Z 01003KT M02/M02 A303 RMK A01 T10171018  RH  099%=      5-min Rain = 0
KWE2 090702Z 01003KT M02/M02 A303 RMK A01 T10161018  RH  099%=      5-min Rain = 0
KWE2 090703Z 01003KT M02/M02 A303 RMK A01 T10161018  RH  099%=      5-min Rain = 0
KWE2 090704Z 01002KT M02/M02 A303 RMK A01 T10161018  RH  098%=      5-min Rain = 0
KWE2 090705Z 02002KT M02/M02 A303 RMK A01 T10161018  RH  098%=      5-min Rain = 0
KWE2 090706Z 01002KT M02/M02 A303 RMK A01 T10161018  RH  098%=      5-min Rain = 0
KWE2 090707Z 34002KT M02/M02 A303 RMK A01 T10161018  RH  098%=      5-min Rain = 0
KWE2 090708Z 32002KT M02/M02 A303 RMK A01 T10161019  RH  098%=      5-min Rain = 0
KWE2 090709Z 31003KT M02/M02 A303 RMK A01 T10171020  RH  098%=      5-min Rain = 0
KWE2 090710Z 31004KT M02/M02 A303 RMK A01 T10181022  RH  098%=      5-min Rain = 0
KWE2 090711Z 30004KT M02/M02 A303 RMK A01 T10191022  RH  098%=      5-min Rain = 0
KWE2 090712Z 30004KT M02/M02 A303 RMK A01 T10201023  RH  098%=      5-min Rain = 0
KWE2 090713Z 31003KT M02/M02 A303 RMK A01 T10201023  RH  098%=      5-min Rain = 0
KWE2 090714Z 31003KT M02/M02 A303 RMK A01 T10201023  RH  098%=      5-min Rain = 0
KWE2 090715Z 31004KT M02/M02 A303 RMK A01 T10201023  RH  098%=      5-min Rain = 0
KWE2 090716Z 31004KT M02/M02 A303 RMK A01 T10201023  RH  098%=      5-min Rain = 0
KWE2 090717Z 31005KT M02/M02 A303 RMK A01 T10201023  RH  098%=      5-min Rain = 0
KWE2 090718Z 32005KT M02/M02 A303 RMK A01 T10211023  RH  098%=      5-min Rain = 0
KWE2 090719Z 32005KT M02/M02 A303 RMK A01 T10211023  RH  098%=      5-min Rain = 0
KWE2 090720Z 33005KT M02/M02 A303 RMK A01 T10211023  RH  098%=      5-min Rain = 0
KWE2 090721Z 33005KT M02/M02 A303 RMK A01 T10211023  RH  098%=      5-min Rain = 0
KWE2 090722Z 34005KT M02/M02 A303 RMK A01 T10211023  RH  098%=      5-min Rain = 0
KWE2 090723Z 34004KT M02/M02 A303 RMK A01 T10201023  RH  098%=      5-min Rain = 0
KWE2 090724Z 34005KT M02/M02 A303 RMK A01 T10201022  RH  099%=      5-min Rain = 0
KWE2 090725Z 34004KT M02/M02 A3029 RMK A01 T10201022  RH  099%=      5-min Rain = 0
KWE2 090726Z 35004KT M02/M02 A3029 RMK A01 T10191021  RH  099%=      5-min Rain = 0
KWE2 090727Z 34004KT M02/M02 A3029 RMK A01 T10191021  RH  099%=      5-min Rain = 0
KWE2 090728Z 34004KT M02/M02 A3029 RMK A01 T10191021  RH  099%=      5-min Rain = 0
KWE2 090729Z 36005KT M02/M02 A3029 RMK A01 T10191021  RH  099%=      5-min Rain = 0
KWE2 090730Z 36005KT M02/M02 A3029 RMK A01 T10191021  RH  098%=      5-min Rain = 0
KWE2 090731Z 35005KT M02/M02 A3029 RMK A01 T10191021  RH  098%=      5-min Rain = 0
KWE2 090732Z 35005KT M02/M02 A3029 RMK A01 T10191021  RH  098%=      5-min Rain = 0
KWE2 090733Z 36005KT M02/M02 A3029 RMK A01 T10181021  RH  098%=      5-min Rain = 0
KWE2 090734Z 00005KT M02/M02 A3029 RMK A01 T10181021  RH  098%=      5-min Rain = 0
KWE2 090735Z 00005KT M02/M02 A3029 RMK A01 T10191021  RH  098%=      5-min Rain = 0
KWE2 090736Z 00005KT M02/M02 A3029 RMK A01 T10191022  RH  098%=      5-min Rain = 0
KWE2 090737Z 01005KT M02/M02 A3029 RMK A01 T10191022  RH  098%=      5-min Rain = 0
KWE2 090738Z 01005KT M02/M02 A3029 RMK A01 T10201023  RH  098%=      5-min Rain = 0
KWE2 090739Z 01005KT M02/M02 A3029 RMK A01 T10201023  RH  098%=      5-min Rain = 0
KWE2 090740Z 00005KT M02/M02 A3029 RMK A01 T10201023  RH  098%=      5-min Rain = 0
KWE2 090741Z 36005KT M02/M02 A3029 RMK A01 T10201023  RH  098%=      5-min Rain = 0
KWE2 090742Z 35004KT M02/M02 A3029 RMK A01 T10201022  RH  098%=      5-min Rain = 0
KWE2 090743Z 35004KT M02/M02 A3029 RMK A01 T10191021  RH  098%=      5-min Rain = 0
KWE2 090744Z 35005KT M02/M02 A3029 RMK A01 T10181020  RH  098%=      5-min Rain = 0
KWE2 090745Z 35004KT M02/M02 A3029 RMK A01 T10181020  RH  098%=      5-min Rain = 0
KWE2 090746Z 35004KT M02/M02 A3029 RMK A01 T10171020  RH  098%=      5-min Rain = 0
KWE2 090747Z 35004KT M02/M02 A3029 RMK A01 T10171020  RH  098%=      5-min Rain = 0
KWE2 090748Z 36004KT M02/M02 A3029 RMK A01 T10171020  RH  098%=      5-min Rain = 0
KWE2 090749Z 35004KT M02/M02 A3029 RMK A01 T10181020  RH  098%=      5-min Rain = 0
KWE2 090750Z 36005KT M02/M02 A3029 RMK A01 T10171020  RH  098%=      5-min Rain = 0
KWE2 090751Z 00005KT M02/M02 A3029 RMK A01 T10181020  RH  098%=      5-min Rain = 0
KWE2 090752Z 00005KT M02/M02 A3029 RMK A01 T10181021  RH  098%=      5-min Rain = 0
KWE2 090753Z 35004KT M02/M02 A3029 RMK A01 T10181021  RH  098%=      5-min Rain = 0
KWE2 090754Z 35003KT M02/M02 A3029 RMK A01 T10171021  RH  098%=      5-min Rain = 0
KWE2 090755Z 36003KT M02/M02 A3029 RMK A01 T10181021  RH  098%=      5-min Rain = 0
KWE2 090756Z 00002KT M02/M02 A3029 RMK A01 T10181021  RH  098%=      5-min Rain = 0
KWE2 090757Z 01003KT M02/M02 A3029 RMK A01 T10181021  RH  098%=      5-min Rain = 0
KWE2 090758Z 00003KT M02/M02 A3029 RMK A01 T10191022  RH  097%=      5-min Rain = 0
KWE2 090759Z 36003KT M02/M02 A3029 RMK A01 T10191023  RH  097%=      5-min Rain = 0
KWE2 090800Z 36003KT M02/M02 A3029 RMK A01 T10201023  RH  097%=      5-min Rain = 0
KWE2 090801Z 36004KT M02/M02 A3029 RMK A01 T10191023  RH  098%=      5-min Rain = 0
KWE2 090802Z 00004KT M02/M02 A3029 RMK A01 T10191023  RH  098%=      5-min Rain = 0
KWE2 090803Z 01004KT M02/M02 A3029 RMK A01 T10191023  RH  098%=      5-min Rain = 0
KWE2 090804Z 01003KT M02/M02 A3029 RMK A01 T10191023  RH  098%=      5-min Rain = 0
KWE2 090805Z 01003KT M02/M02 A3029 RMK A01 T10201023  RH  097%=      5-min Rain = 0
KWE2 090806Z 01003KT M02/M02 A3029 RMK A01 T10201024  RH  097%=      5-min Rain = 0
KWE2 090807Z 01003KT M02/M02 A3029 RMK A01 T10211024  RH  097%=      5-min Rain = 0
KWE2 090808Z 01003KT M02/M03 A3029 RMK A01 T10211025  RH  097%=      5-min Rain = 0
KWE2 090809Z 02003KT M02/M03 A3029 RMK A01 T10211025  RH  097%=      5-min Rain = 0
KWE2 090810Z 02003KT M02/M03 A3029 RMK A01 T10221026  RH  097%=      5-min Rain = 0
KWE2 090811Z 02003KT M02/M03 A3029 RMK A01 T10221026  RH  097%=      5-min Rain = 0
KWE2 090812Z 02003KT M02/M03 A3029 RMK A01 T10221026  RH  097%=      5-min Rain = 0
KWE2 090813Z 02003KT M02/M03 A3029 RMK A01 T10221026  RH  097%=      5-min Rain = 0
KWE2 090814Z 02003KT M02/M03 A3029 RMK A01 T10231027  RH  097%=      5-min Rain = 0
KWE2 090815Z 02003KT M02/M03 A3029 RMK A01 T10231027  RH  097%=      5-min Rain = 0
KWE2 090816Z 02003KT M02/M03 A3029 RMK A01 T10231027  RH  097%=      5-min Rain = 0
KWE2 090817Z 02003KT M02/M03 A3029 RMK A01 T10231027  RH  097%=      5-min Rain = 0
KWE2 090818Z 01003KT M02/M03 A3029 RMK A01 T10231027  RH  097%=      5-min Rain = 0
KWE2 090819Z 00002KT M02/M03 A3029 RMK A01 T10231027  RH  097%=      5-min Rain = 0
KWE2 090820Z 36002KT M02/M03 A3029 RMK A01 T10231026  RH  098%=      5-min Rain = 0
KWE2 090821Z 00002KT M02/M03 A3029 RMK A01 T10231026  RH  098%=      5-min Rain = 0
KWE2 090822Z 00002KT M02/M03 A3029 RMK A01 T10221025  RH  098%=      5-min Rain = 0
KWE2 090823Z 36003KT M02/M03 A3029 RMK A01 T10221025  RH  098%=      5-min Rain = 0
KWE2 090824Z 36003KT M02/M03 A3029 RMK A01 T10221025  RH  098%=      5-min Rain = 0
KWE2 090825Z 34003KT M02/M03 A3029 RMK A01 T10221025  RH  098%=      5-min Rain = 0
KWE2 090826Z 33003KT M02/M02 A3029 RMK A01 T10211024  RH  098%=      5-min Rain = 0
KWE2 090827Z 32003KT M02/M02 A3029 RMK A01 T10211024  RH  098%=      5-min Rain = 0
KWE2 090828Z 31003KT M02/M02 A3029 RMK A01 T10211024  RH  098%=      5-min Rain = 0
KWE2 090829Z 32003KT M02/M03 A303 RMK A01 T10221025  RH  098%=      5-min Rain = 0
KWE2 090830Z 32004KT M02/M03 A303 RMK A01 T10231026  RH  098%=      5-min Rain = 0
KWE2 090831Z 33004KT M02/M03 A303 RMK A01 T10231026  RH  098%=      5-min Rain = 0
KWE2 090832Z 33004KT M02/M03 A303 RMK A01 T10231026  RH  098%=      5-min Rain = 0
KWE2 090833Z 34004KT M02/M03 A303 RMK A01 T10231026  RH  098%=      5-min Rain = 0
KWE2 090834Z 33004KT M02/M03 A303 RMK A01 T10231026  RH  098%=      5-min Rain = 0
KWE2 090835Z 33003KT M02/M03 A3029 RMK A01 T10241027  RH  098%=      5-min Rain = 0
KWE2 090836Z 33003KT M02/M03 A3029 RMK A01 T10241027  RH  098%=      5-min Rain = 0
KWE2 090837Z 35002KT M02/M03 A3029 RMK A01 T10231026  RH  098%=      5-min Rain = 0
KWE2 090838Z 35003KT M02/M03 A3029 RMK A01 T10241026  RH  098%=      5-min Rain = 0
KWE2 090839Z 36003KT M02/M03 A3029 RMK A01 T10231026  RH  098%=      5-min Rain = 0
KWE2 090840Z 00003KT M02/M03 A3029 RMK A01 T10231026  RH  098%=      5-min Rain = 0
KWE2 090841Z 00003KT M02/M03 A3029 RMK A01 T10241027  RH  098%=      5-min Rain = 0
KWE2 090842Z 00003KT M02/M03 A3029 RMK A01 T10241027  RH  098%=      5-min Rain = 0
KWE2 090843Z 01002KT M03/M03 A3029 RMK A01 T10251028  RH  098%=      5-min Rain = 0
KWE2 090844Z 01002KT M03/M03 A3029 RMK A01 T10251029  RH  098%=      5-min Rain = 0
KWE2 090845Z 00002KT M03/M03 A3029 RMK A01 T10261029  RH  098%=      5-min Rain = 0
KWE2 090846Z 00002KT M03/M03 A3029 RMK A01 T10261030  RH  098%=      5-min Rain = 0
KWE2 090847Z 36002KT M03/M03 A3029 RMK A01 T10261029  RH  098%=      5-min Rain = 0
KWE2 090848Z 35003KT M03/M03 A3029 RMK A01 T10261029  RH  098%=      5-min Rain = 0
KWE2 090849Z 34003KT M03/M03 A3029 RMK A01 T10251028  RH  098%=      5-min Rain = 0
KWE2 090850Z 34003KT M02/M03 A3029 RMK A01 T10241026  RH  098%=      5-min Rain = 0
KWE2 090851Z 35003KT M02/M03 A3029 RMK A01 T10241026  RH  098%=      5-min Rain = 0
KWE2 090852Z 35003KT M02/M03 A3029 RMK A01 T10241026  RH  098%=      5-min Rain = 0
KWE2 090853Z 36003KT M02/M03 A3029 RMK A01 T10241026  RH  098%=      5-min Rain = 0
KWE2 090854Z 35003KT M02/M03 A3029 RMK A01 T10241026  RH  098%=      5-min Rain = 0
KWE2 090855Z 35003KT M02/M03 A3029 RMK A01 T10231026  RH  098%=      5-min Rain = 0
KWE2 090856Z 34003KT M02/M03 A3029 RMK A01 T10241026  RH  098%=      5-min Rain = 0
KWE2 090857Z 34003KT M02/M03 A3029 RMK A01 T10231026  RH  098%=      5-min Rain = 0
KWE2 090858Z 34003KT M02/M03 A3029 RMK A01 T10241026  RH  098%=      5-min Rain = 0
KWE2 090859Z 34003KT M02/M03 A3029 RMK A01 T10241026  RH  098%=      5-min Rain = 0
KWE2 090900Z 34003KT M02/M03 A3029 RMK A01 T10241026  RH  098%=      5-min Rain = 0
KWE2 090901Z 34003KT M02/M03 A3029 RMK A01 T10241027  RH  098%=      5-min Rain = 0
KWE2 090902Z 34003KT M02/M03 A3029 RMK A01 T10241027  RH  098%=      5-min Rain = 0
KWE2 090903Z 33003KT M03/M03 A3029 RMK A01 T10251028  RH  098%=      5-min Rain = 0
KWE2 090904Z 34003KT M03/M03 A3029 RMK A01 T10251029  RH  098%=      5-min Rain = 0
KWE2 090905Z 34004KT M03/M03 A3029 RMK A01 T10251029  RH  098%=      5-min Rain = 0
KWE2 090906Z 34004KT M03/M03 A3029 RMK A01 T10251029  RH  098%=      5-min Rain = 0
KWE2 090907Z 34003KT M03/M03 A3029 RMK A01 T10251029  RH  098%=      5-min Rain = 0
KWE2 090908Z 34003KT M03/M03 A3029 RMK A01 T10251028  RH  098%=      5-min Rain = 0
KWE2 090909Z 34003KT M03/M03 A3029 RMK A01 T10251029  RH  098%=      5-min Rain = 0
KWE2 090910Z 35003KT M03/M03 A3029 RMK A01 T10261029  RH  098%=      5-min Rain = 0
KWE2 090911Z 34003KT M03/M03 A3029 RMK A01 T10261029  RH  098%=      5-min Rain = 0
KWE2 090912Z 33003KT M03/M03 A3029 RMK A01 T10261030  RH  097%=      5-min Rain = 0
KWE2 090913Z 33004KT M03/M03 A3029 RMK A01 T10261029  RH  097%=      5-min Rain = 0
KWE2 090914Z 33004KT M03/M03 A3029 RMK A01 T10261029  RH  097%=      5-min Rain = 0
KWE2 090915Z 33004KT M03/M03 A3029 RMK A01 T10261030  RH  097%=      5-min Rain = 0
KWE2 090916Z 33003KT M03/M03 A3029 RMK A01 T10261030  RH  097%=      5-min Rain = 0
KWE2 090917Z 34003KT M03/M03 A3029 RMK A01 T10261030  RH  097%=      5-min Rain = 0
KWE2 090918Z 34003KT M03/M03 A3029 RMK A01 T10271031  RH  097%=      5-min Rain = 0
KWE2 090919Z 34004KT M03/M03 A3029 RMK A01 T10271031  RH  097%=      5-min Rain = 0
KWE2 090920Z 34004KT M03/M03 A3029 RMK A01 T10271031  RH  097%=      5-min Rain = 0
KWE2 090921Z 34004KT M03/M03 A3029 RMK A01 T10271031  RH  097%=      5-min Rain = 0
KWE2 090922Z 35004KT M03/M03 A3029 RMK A01 T10271031  RH  097%=      5-min Rain = 0
KWE2 090923Z 35004KT M03/M03 A3029 RMK A01 T10271031  RH  097%=      5-min Rain = 0
KWE2 090924Z 35004KT M03/M03 A3029 RMK A01 T10271032  RH  097%=      5-min Rain = 0
KWE2 090925Z 35004KT M03/M03 A3029 RMK A01 T10271032  RH  097%=      5-min Rain = 0
KWE2 090926Z 35003KT M03/M03 A3029 RMK A01 T10271031  RH  097%=      5-min Rain = 0
KWE2 090927Z 35003KT M03/M03 A3029 RMK A01 T10261031  RH  097%=      5-min Rain = 0
KWE2 090928Z 34003KT M03/M03 A3029 RMK A01 T10271032  RH  096%=      5-min Rain = 0
KWE2 090929Z 34003KT M03/M03 A3029 RMK A01 T10271032  RH  096%=      5-min Rain = 0
KWE2 090930Z 34002KT M03/M03 A3029 RMK A01 T10271032  RH  096%=      5-min Rain = 0
KWE2 090931Z 34002KT M03/M03 A3029 RMK A01 T10271032  RH  096%=      5-min Rain = 0
KWE2 090932Z 33002KT M03/M03 A3029 RMK A01 T10271032  RH  096%=      5-min Rain = 0
KWE2 090933Z 32002KT M03/M03 A3029 RMK A01 T10271032  RH  097%=      5-min Rain = 0
KWE2 090934Z 32003KT M03/M03 A3029 RMK A01 T10271032  RH  096%=      5-min Rain = 0
KWE2 090935Z 32002KT M03/M03 A3029 RMK A01 T10281033  RH  096%=      5-min Rain = 0
KWE2 090936Z 32002KT M03/M03 A3029 RMK A01 T10291034  RH  096%=      5-min Rain = 0
KWE2 090937Z 32002KT M03/M03 A3029 RMK A01 T10291034  RH  096%=      5-min Rain = 0
KWE2 090938Z 31002KT M03/M03 A3029 RMK A01 T10291034  RH  096%=      5-min Rain = 0
KWE2 090939Z 31002KT M03/M03 A303 RMK A01 T10291034  RH  097%=      5-min Rain = 0
KWE2 090940Z 31002KT M03/M03 A303 RMK A01 T10301034  RH  097%=      5-min Rain = 0
KWE2 090941Z 31002KT M03/M03 A303 RMK A01 T10291034  RH  097%=      5-min Rain = 0
KWE2 090942Z 32002KT M03/M03 A303 RMK A01 T10301034  RH  097%=      5-min Rain = 0
KWE2 090943Z 33003KT M03/M04 A303 RMK A01 T10301035  RH  097%=      5-min Rain = 0
KWE2 090944Z 34003KT M03/M04 A303 RMK A01 T10301035  RH  097%=      5-min Rain = 0
KWE2 090945Z 35003KT M03/M04 A303 RMK A01 T10301035  RH  097%=      5-min Rain = 0
KWE2 090946Z 35003KT M03/M04 A303 RMK A01 T10301035  RH  097%=      5-min Rain = 0
KWE2 090947Z 35003KT M03/M04 A303 RMK A01 T10301035  RH  097%=      5-min Rain = 0
KWE2 090948Z 34003KT M03/M04 A303 RMK A01 T10301035  RH  097%=      5-min Rain = 0
KWE2 090949Z 35003KT M03/M03 A303 RMK A01 T10301034  RH  097%=      5-min Rain = 0
KWE2 090950Z 34004KT M03/M03 A303 RMK A01 T10301034  RH  097%=      5-min Rain = 0
KWE2 090951Z 34004KT M03/M03 A303 RMK A01 T10291034  RH  097%=      5-min Rain = 0
KWE2 090952Z 34004KT M03/M03 A303 RMK A01 T10291034  RH  097%=      5-min Rain = 0
KWE2 090953Z 33004KT M03/M03 A303 RMK A01 T10291034  RH  097%=      5-min Rain = 0
KWE2 090954Z 33004KT M03/M03 A303 RMK A01 T10291034  RH  096%=      5-min Rain = 0
KWE2 090955Z 34004KT M03/M03 A303 RMK A01 T10291034  RH  096%=      5-min Rain = 0
KWE2 090956Z 34003KT M03/M03 A303 RMK A01 T10291034  RH  096%=      5-min Rain = 0
KWE2 090957Z 34004KT M03/M03 A303 RMK A01 T10291034  RH  096%=      5-min Rain = 0
KWE2 090958Z 35004KT M03/M03 A303 RMK A01 T10291034  RH  096%=      5-min Rain = 0
KWE2 090959Z 35003KT M03/M03 A303 RMK A01 T10291034  RH  097%=      5-min Rain = 0
KWE2 091000Z 34003KT M03/M03 A303 RMK A01 T10301034  RH  097%=      5-min Rain = 0
KWE2 091001Z 34004KT M03/M03 A303 RMK A01 T10301034  RH  097%=      5-min Rain = 0
KWE2 091002Z 34004KT M03/M04 A303 RMK A01 T10301035  RH  096%=      5-min Rain = 0
KWE2 091003Z 34004KT M03/M04 A303 RMK A01 T10301035  RH  096%=      5-min Rain = 0
KWE2 091004Z 34005KT M03/M04 A303 RMK A01 T10301035  RH  096%=      5-min Rain = 0
KWE2 091005Z 34005KT M03/M04 A303 RMK A01 T10301035  RH  096%=      5-min Rain = 0
KWE2 091006Z 34005KT M03/M04 A303 RMK A01 T10301036  RH  096%=      5-min Rain = 0
KWE2 091007Z 34006KT M03/M04 A303 RMK A01 T10311036  RH  096%=      5-min Rain = 0
KWE2 091008Z 34005KT M03/M04 A303 RMK A01 T10311037  RH  096%=      5-min Rain = 0
KWE2 091009Z 34005KT M03/M04 A303 RMK A01 T10311037  RH  096%=      5-min Rain = 0
KWE2 091010Z 33004KT M03/M04 A303 RMK A01 T10311037  RH  096%=      5-min Rain = 0
KWE2 091011Z 33005KT M03/M04 A303 RMK A01 T10311037  RH  096%=      5-min Rain = 0
KWE2 091012Z 33004KT M03/M04 A303 RMK A01 T10321038  RH  096%=      5-min Rain = 0
KWE2 091013Z 34005KT M03/M04 A303 RMK A01 T10321038  RH  096%=      5-min Rain = 0
KWE2 091014Z 34005KT M03/M04 A303 RMK A01 T10321038  RH  096%=      5-min Rain = 0
KWE2 091015Z 34005KT M03/M04 A303 RMK A01 T10321038  RH  096%=      5-min Rain = 0
KWE2 091016Z 35005KT M03/M04 A303 RMK A01 T10321038  RH  096%=      5-min Rain = 0
KWE2 091017Z 34005KT M03/M04 A303 RMK A01 T10321038  RH  096%=      5-min Rain = 0
KWE2 091018Z 34005KT M03/M04 A303 RMK A01 T10321038  RH  096%=      5-min Rain = 0
KWE2 091019Z 34006KT M03/M04 A303 RMK A01 T10321038  RH  096%=      5-min Rain = 0
KWE2 091020Z 34006KT M03/M04 A303 RMK A01 T10331039  RH  096%=      5-min Rain = 0
KWE2 091021Z 34006KT M03/M04 A303 RMK A01 T10331039  RH  095%=      5-min Rain = 0
KWE2 091022Z 34006KT M03/M04 A303 RMK A01 T10331039  RH  095%=      5-min Rain = 0
KWE2 091023Z 34005KT M03/M04 A303 RMK A01 T10331039  RH  095%=      5-min Rain = 0
KWE2 091024Z 34005KT M03/M04 A303 RMK A01 T10331039  RH  096%=      5-min Rain = 0
KWE2 091025Z 34004KT M03/M04 A303 RMK A01 T10321038  RH  096%=      5-min Rain = 0
KWE2 091026Z 34004KT M03/M04 A303 RMK A01 T10321039  RH  096%=      5-min Rain = 0
KWE2 091027Z 33004KT M03/M04 A303 RMK A01 T10331039  RH  096%=      5-min Rain = 0
KWE2 091028Z 33005KT M03/M04 A303 RMK A01 T10331039  RH  096%=      5-min Rain = 0
KWE2 091029Z 33005KT M03/M04 A303 RMK A01 T10341040  RH  096%=      5-min Rain = 0
KWE2 091030Z 34005KT M03/M04 A303 RMK A01 T10331040  RH  095%=      5-min Rain = 0
KWE2 091031Z 34006KT M03/M04 A303 RMK A01 T10341040  RH  095%=      5-min Rain = 0
KWE2 091032Z 34007KT M03/M04 A303 RMK A01 T10341041  RH  095%=      5-min Rain = 0
KWE2 091033Z 34006KT M03/M04 A303 RMK A01 T10341042  RH  095%=      5-min Rain = 0
KWE2 091034Z 33005KT M03/M04 A303 RMK A01 T10341042  RH  095%=      5-min Rain = 0
KWE2 091035Z 33005KT M04/M04 A303 RMK A01 T10351042  RH  095%=      5-min Rain = 0
KWE2 091036Z 32004KT M03/M04 A303 RMK A01 T10341041  RH  095%=      5-min Rain = 0
KWE2 091037Z 33004KT M04/M04 A303 RMK A01 T10351042  RH  095%=      5-min Rain = 0
KWE2 091038Z 32003KT M04/M04 A303 RMK A01 T10351042  RH  095%=      5-min Rain = 0
KWE2 091039Z 32003KT M04/M04 A303 RMK A01 T10351042  RH  095%=      5-min Rain = 0
KWE2 091040Z 32003KT M04/M04 A303 RMK A01 T10361042  RH  095%=      5-min Rain = 0
KWE2 091041Z 32003KT M04/M04 A303 RMK A01 T10361042  RH  095%=      5-min Rain = 0
KWE2 091042Z 32004KT M04/M04 A303 RMK A01 T10361043  RH  095%=      5-min Rain = 0
KWE2 091043Z 32004KT M04/M04 A303 RMK A01 T10361042  RH  096%=      5-min Rain = 0
KWE2 091044Z 32005KT M04/M04 A303 RMK A01 T10371043  RH  096%=      5-min Rain = 0
KWE2 091045Z 32005KT M04/M04 A303 RMK A01 T10371043  RH  096%=      5-min Rain = 0
KWE2 091046Z 32005KT M04/M04 A303 RMK A01 T10381044  RH  095%=      5-min Rain = 0
KWE2 091047Z 32005KT M04/M04 A303 RMK A01 T10381044  RH  095%=      5-min Rain = 0
KWE2 091048Z 32005KT M04/M05 A303 RMK A01 T10381045  RH  095%=      5-min Rain = 0
KWE2 091049Z 32005KT M04/M05 A303 RMK A01 T10391045  RH  095%=      5-min Rain = 0
KWE2 091050Z 32005KT M04/M05 A303 RMK A01 T10381045  RH  095%=      5-min Rain = 0
KWE2 091051Z 32005KT M04/M05 A303 RMK A01 T10391046  RH  095%=      5-min Rain = 0
KWE2 091052Z 32004KT M04/M05 A303 RMK A01 T10391046  RH  095%=      5-min Rain = 0
KWE2 091053Z 32004KT M04/M05 A303 RMK A01 T10391046  RH  095%=      5-min Rain = 0
KWE2 091054Z 32004KT M04/M05 A303 RMK A01 T10391046  RH  095%=      5-min Rain = 0
KWE2 091055Z 32004KT M04/M05 A303 RMK A01 T10391046  RH  095%=      5-min Rain = 0
KWE2 091056Z 31004KT M04/M05 A303 RMK A01 T10391046  RH  095%=      5-min Rain = 0
KWE2 091057Z 32004KT M04/M05 A303 RMK A01 T10391045  RH  095%=      5-min Rain = 0
KWE2 091058Z 33005KT M04/M05 A303 RMK A01 T10391046  RH  095%=      5-min Rain = 0
KWE2 091059Z 33004KT M04/M05 A303 RMK A01 T10401046  RH  095%=      5-min Rain = 0
KWE2 091100Z 34004KT M04/M05 A303 RMK A01 T10391046  RH  095%=      5-min Rain = 0
KWE2 091101Z 34004KT M04/M05 A303 RMK A01 T10391046  RH  095%=      5-min Rain = 0
KWE2 091102Z 34004KT M04/M05 A303 RMK A01 T10391046  RH  095%=      5-min Rain = 0
KWE2 091103Z 34004KT M04/M05 A303 RMK A01 T10391046  RH  095%=      5-min Rain = 0
KWE2 091104Z 34004KT M04/M05 A303 RMK A01 T10391046  RH  095%=      5-min Rain = 0
KWE2 091105Z 33004KT M04/M05 A303 RMK A01 T10401046  RH  095%=      5-min Rain = 0
KWE2 091106Z 34004KT M04/M05 A303 RMK A01 T10391046  RH  095%=      5-min Rain = 0
KWE2 091107Z 34003KT M04/M05 A303 RMK A01 T10401046  RH  095%=      5-min Rain = 0
KWE2 091108Z 34003KT M04/M05 A303 RMK A01 T10401046  RH  095%=      5-min Rain = 0
KWE2 091109Z 34003KT M04/M05 A303 RMK A01 T10391045  RH  095%=      5-min Rain = 0
KWE2 091110Z 35004KT M04/M05 A303 RMK A01 T10391045  RH  095%=      5-min Rain = 0
KWE2 091111Z 35004KT M04/M05 A303 RMK A01 T10381045  RH  096%=      5-min Rain = 0
KWE2 091112Z 35004KT M04/M05 A303 RMK A01 T10391045  RH  096%=      5-min Rain = 0
KWE2 091113Z 35004KT M04/M04 A303 RMK A01 T10381044  RH  096%=      5-min Rain = 0
KWE2 091114Z 34005KT M04/M04 A303 RMK A01 T10381044  RH  096%=      5-min Rain = 0
KWE2 091115Z 34005KT M04/M05 A303 RMK A01 T10381045  RH  095%=      5-min Rain = 0
KWE2 091116Z 34005KT M04/M05 A303 RMK A01 T10381045  RH  095%=      5-min Rain = 0
KWE2 091117Z 35005KT M04/M05 A303 RMK A01 T10381045  RH  095%=      5-min Rain = 0
KWE2 091118Z 35005KT M04/M05 A303 RMK A01 T10381045  RH  095%=      5-min Rain = 0
KWE2 091119Z 35005KT M04/M05 A303 RMK A01 T10381045  RH  095%=      5-min Rain = 0
KWE2 091120Z 35005KT M04/M04 A303 RMK A01 T10381044  RH  095%=      5-min Rain = 0
KWE2 091121Z 34005KT M04/M04 A303 RMK A01 T10381044  RH  095%=      5-min Rain = 0
KWE2 091122Z 35006KT M04/M04 A303 RMK A01 T10381044  RH  095%=      5-min Rain = 0
KWE2 091123Z 35005KT M04/M05 A3031 RMK A01 T10381045  RH  095%=      5-min Rain = 0
KWE2 091124Z 35005KT M04/M05 A3031 RMK A01 T10381045  RH  095%=      5-min Rain = 0
KWE2 091125Z 35006KT M04/M05 A3031 RMK A01 T10381045  RH  095%=      5-min Rain = 0
KWE2 091126Z 35006KT M04/M05 A3031 RMK A01 T10381045  RH  095%=      5-min Rain = 0
KWE2 091127Z 35006KT M04/M05 A3031 RMK A01 T10381046  RH  095%=      5-min Rain = 0
KWE2 091128Z 36005KT M04/M05 A3031 RMK A01 T10391046  RH  095%=      5-min Rain = 0
KWE2 091129Z 35005KT M04/M05 A3031 RMK A01 T10391045  RH  095%=      5-min Rain = 0
KWE2 091130Z 35005KT M04/M05 A3031 RMK A01 T10381045  RH  095%=      5-min Rain = 0
KWE2 091131Z 35006KT M04/M05 A3031 RMK A01 T10381045  RH  095%=      5-min Rain = 0
KWE2 091132Z 35006KT M04/M05 A3031 RMK A01 T10381045  RH  095%=      5-min Rain = 0
KWE2 091133Z 35005KT M04/M05 A3031 RMK A01 T10381045  RH  095%=      5-min Rain = 0
KWE2 091134Z 35005KT M04/M04 A3031 RMK A01 T10381044  RH  095%=      5-min Rain = 0
KWE2 091135Z 35006KT M04/M04 A3031 RMK A01 T10381044  RH  095%=      5-min Rain = 0
KWE2 091136Z 35006KT M04/M04 A3031 RMK A01 T10381044  RH  095%=      5-min Rain = 0
KWE2 091137Z 35006KT M04/M04 A3031 RMK A01 T10381044  RH  095%=      5-min Rain = 0
KWE2 091138Z 35005KT M04/M04 A3031 RMK A01 T10381044  RH  095%=      5-min Rain = 0
KWE2 091139Z 36005KT M04/M04 A3031 RMK A01 T10381044  RH  095%=      5-min Rain = 0
KWE2 091140Z 35006KT M04/M04 A3031 RMK A01 T10371044  RH  095%=      5-min Rain = 0
KWE2 091141Z 35006KT M04/M04 A3031 RMK A01 T10371044  RH  095%=      5-min Rain = 0
KWE2 091142Z 35005KT M04/M04 A3032 RMK A01 T10371044  RH  095%=      5-min Rain = 0
KWE2 091143Z 35005KT M04/M04 A3032 RMK A01 T10371044  RH  095%=      5-min Rain = 0
KWE2 091144Z 35006KT M04/M04 A3032 RMK A01 T10371044  RH  095%=      5-min Rain = 0
KWE2 091145Z 36005KT M04/M04 A3032 RMK A01 T10371044  RH  095%=      5-min Rain = 0
KWE2 091146Z 36005KT M04/M04 A3032 RMK A01 T10371044  RH  095%=      5-min Rain = 0
KWE2 091147Z 35005KT M04/M04 A3032 RMK A01 T10371043  RH  095%=      5-min Rain = 0
KWE2 091148Z 35005KT M04/M04 A3032 RMK A01 T10371044  RH  095%=      5-min Rain = 0
KWE2 091149Z 35005KT M04/M04 A3032 RMK A01 T10371044  RH  095%=      5-min Rain = 0
KWE2 091150Z 34005KT M04/M04 A3032 RMK A01 T10371043  RH  095%=      5-min Rain = 0
KWE2 091151Z 34006KT M04/M04 A3032 RMK A01 T10371043  RH  095%=      5-min Rain = 0
KWE2 091152Z 34005KT M04/M04 A3032 RMK A01 T10371043  RH  095%=      5-min Rain = 0
KWE2 091153Z 34005KT M04/M04 A3032 RMK A01 T10371043  RH  095%=      5-min Rain = 0
KWE2 091154Z 34005KT M04/M04 A3032 RMK A01 T10371044  RH  095%=      5-min Rain = 0
KWE2 091155Z 34005KT M04/M04 A3032 RMK A01 T10371044  RH  095%=      5-min Rain = 0
KWE2 091156Z 35005KT M04/M04 A3032 RMK A01 T10371044  RH  095%=      5-min Rain = 0
KWE2 091157Z 34004KT M04/M04 A3032 RMK A01 T10371044  RH  095%=      5-min Rain = 0
KWE2 091158Z 34004KT M04/M04 A3032 RMK A01 T10371044  RH  095%=      5-min Rain = 0
KWE2 091159Z 33005KT M04/M04 A3033 RMK A01 T10371044  RH  095%=      5-min Rain = 0
KWE2 091200Z 33004KT M04/M04 A3033 RMK A01 T10371044  RH  095%=      5-min Rain = 0
KWE2 091201Z 33005KT M04/M05 A3033 RMK A01 T10381045  RH  095%=      5-min Rain = 0
KWE2 091202Z 34005KT M04/M05 A3033 RMK A01 T10381045  RH  095%=      5-min Rain = 0
KWE2 091203Z 34005KT M04/M04 A3033 RMK A01 T10381044  RH  095%=      5-min Rain = 0
KWE2 091204Z 34006KT M04/M05 A3033 RMK A01 T10381045  RH  095%=      5-min Rain = 0
KWE2 091205Z 34005KT M04/M05 A3033 RMK A01 T10381045  RH  095%=      5-min Rain = 0
KWE2 091206Z 35005KT M04/M05 A3033 RMK A01 T10381045  RH  095%=      5-min Rain = 0
KWE2 091207Z 34005KT M04/M05 A3033 RMK A01 T10381045  RH  095%=      5-min Rain = 0
KWE2 091208Z 35006KT M04/M05 A3033 RMK A01 T10381045  RH  095%=      5-min Rain = 0
KWE2 091209Z 35006KT M04/M05 A3033 RMK A01 T10381045  RH  095%=      5-min Rain = 0
KWE2 091210Z 35006KT M04/M05 A3033 RMK A01 T10381045  RH  095%=      5-min Rain = 0
KWE2 091211Z 35006KT M04/M05 A3033 RMK A01 T10381045  RH  095%=      5-min Rain = 0
KWE2 091212Z 35007KT M04/M05 A3033 RMK A01 T10381045  RH  095%=      5-min Rain = 0
KWE2 091213Z 35006KT M04/M05 A3033 RMK A01 T10381045  RH  095%=      5-min Rain = 0
KWE2 091214Z 35007KT M04/M05 A3033 RMK A01 T10381045  RH  095%=      5-min Rain = 0
KWE2 091215Z 35006KT M04/M05 A3033 RMK A01 T10381045  RH  095%=      5-min Rain = 0
KWE2 091216Z 35006KT M04/M04 A3033 RMK A01 T10381044  RH  095%=      5-min Rain = 0
KWE2 091217Z 35006KT M04/M04 A3033 RMK A01 T10381044  RH  096%=      5-min Rain = 0
KWE2 091218Z 35006KT M04/M04 A3033 RMK A01 T10381044  RH  096%=      5-min Rain = 0
KWE2 091219Z 36007KT M04/M04 A3033 RMK A01 T10371043  RH  096%=      5-min Rain = 0
KWE2 091220Z 35006KT M04/M04 A3033 RMK A01 T10381043  RH  096%=      5-min Rain = 0
KWE2 091221Z 35005KT M04/M04 A3033 RMK A01 T10381044  RH  096%=      5-min Rain = 0
KWE2 091222Z 35006KT M04/M04 A3033 RMK A01 T10371043  RH  096%=      5-min Rain = 0
KWE2 091223Z 35006KT M04/M04 A3033 RMK A01 T10381044  RH  096%=      5-min Rain = 0
KWE2 091224Z 35006KT M04/M04 A3033 RMK A01 T10381044  RH  096%=      5-min Rain = 0
KWE2 091225Z 35006KT M04/M04 A3033 RMK A01 T10381044  RH  096%=      5-min Rain = 0
KWE2 091226Z 35006KT M04/M04 A3033 RMK A01 T10381044  RH  096%=      5-min Rain = 0
KWE2 091227Z 35006KT M04/M04 A3033 RMK A01 T10381044  RH  096%=      5-min Rain = 0
KWE2 091228Z 35007KT M04/M04 A3033 RMK A01 T10381044  RH  096%=      5-min Rain = 0
KWE2 091229Z 35006KT M04/M04 A3033 RMK A01 T10381044  RH  096%=      5-min Rain = 0
KWE2 091230Z 35006KT M04/M04 A3033 RMK A01 T10381044  RH  096%=      5-min Rain = 0
KWE2 091231Z 35006KT M04/M04 A3034 RMK A01 T10381044  RH  096%=      5-min Rain = 0
KWE2 091232Z 34006KT M04/M05 A3034 RMK A01 T10391045  RH  096%=      5-min Rain = 0
KWE2 091233Z 35007KT M04/M05 A3034 RMK A01 T10391045  RH  095%=      5-min Rain = 0
KWE2 091234Z 35006KT M04/M05 A3034 RMK A01 T10391046  RH  095%=      5-min Rain = 0
KWE2 091235Z 35007KT M04/M05 A3034 RMK A01 T10401046  RH  095%=      5-min Rain = 0
KWE2 091236Z 35006KT M04/M05 A3034 RMK A01 T10401047  RH  095%=      5-min Rain = 0
KWE2 091237Z 35006KT M04/M05 A3034 RMK A01 T10401047  RH  095%=      5-min Rain = 0
KWE2 091238Z 35006KT M04/M05 A3034 RMK A01 T10401046  RH  096%=      5-min Rain = 0
KWE2 091239Z 35006KT M04/M05 A3034 RMK A01 T10401046  RH  096%=      5-min Rain = 0
KWE2 091240Z 35005KT M04/M05 A3034 RMK A01 T10401046  RH  096%=      5-min Rain = 0
KWE2 091241Z 35006KT M04/M05 A3034 RMK A01 T10401046  RH  096%=      5-min Rain = 0
KWE2 091242Z 35006KT M04/M05 A3034 RMK A01 T10401046  RH  096%=      5-min Rain = 0
KWE2 091243Z 35005KT M04/M05 A3034 RMK A01 T10401046  RH  095%=      5-min Rain = 0
KWE2 091244Z 35005KT M04/M05 A3034 RMK A01 T10401046  RH  096%=      5-min Rain = 0
KWE2 091245Z 36006KT M04/M05 A3034 RMK A01 T10401046  RH  095%=      5-min Rain = 0
KWE2 091246Z 35005KT M04/M05 A3034 RMK A01 T10401046  RH  095%=      5-min Rain = 0
KWE2 091247Z 36005KT M04/M05 A3034 RMK A01 T10401046  RH  095%=      5-min Rain = 0
KWE2 091248Z 36005KT M04/M05 A3034 RMK A01 T10401046  RH  095%=      5-min Rain = 0
KWE2 091249Z 36005KT M04/M05 A3034 RMK A01 T10401046  RH  095%=      5-min Rain = 0
KWE2 091250Z 35005KT M04/M05 A3034 RMK A01 T10401046  RH  095%=      5-min Rain = 0
KWE2 091251Z 35005KT M04/M05 A3034 RMK A01 T10401046  RH  096%=      5-min Rain = 0
KWE2 091252Z 35006KT M04/M05 A3034 RMK A01 T10401046  RH  096%=      5-min Rain = 0
KWE2 091253Z 35006KT M04/M05 A3034 RMK A01 T10401047  RH  095%=      5-min Rain = 0
KWE2 091254Z 34006KT M04/M05 A3034 RMK A01 T10411047  RH  095%=      5-min Rain = 0
KWE2 091255Z 34006KT M04/M05 A3034 RMK A01 T10411047  RH  095%=      5-min Rain = 0
KWE2 091256Z 34005KT M04/M05 A3034 RMK A01 T10411048  RH  095%=      5-min Rain = 0
KWE2 091257Z 35005KT M04/M05 A3034 RMK A01 T10411048  RH  095%=      5-min Rain = 0
KWE2 091258Z 35005KT M04/M05 A3034 RMK A01 T10411047  RH  095%=      5-min Rain = 0
KWE2 091259Z 35005KT M04/M05 A3034 RMK A01 T10411047  RH  095%=      5-min Rain = 0
KWE2 091300Z 35004KT M04/M05 A3034 RMK A01 T10411048  RH  095%=      5-min Rain = 0
KWE2 091301Z 35005KT M04/M05 A3034 RMK A01 T10411048  RH  095%=      5-min Rain = 0
KWE2 091302Z 35005KT M04/M05 A3034 RMK A01 T10421048  RH  095%=      5-min Rain = 0
KWE2 091303Z 35005KT M04/M05 A3034 RMK A01 T10421049  RH  095%=      5-min Rain = 0
KWE2 091304Z 35005KT M04/M05 A3034 RMK A01 T10421049  RH  095%=      5-min Rain = 0
KWE2 091305Z 35006KT M04/M05 A3035 RMK A01 T10421049  RH  095%=      5-min Rain = 0
KWE2 091306Z 35005KT M04/M05 A3035 RMK A01 T10421049  RH  095%=      5-min Rain = 0
KWE2 091307Z 35005KT M04/M05 A3035 RMK A01 T10421048  RH  095%=      5-min Rain = 0
KWE2 091308Z 35005KT M04/M05 A3035 RMK A01 T10421049  RH  095%=      5-min Rain = 0
KWE2 091309Z 35005KT M04/M05 A3035 RMK A01 T10421048  RH  095%=      5-min Rain = 0
KWE2 091310Z 36006KT M04/M05 A3035 RMK A01 T10421048  RH  095%=      5-min Rain = 0
KWE2 091311Z 35006KT M04/M05 A3035 RMK A01 T10421049  RH  095%=      5-min Rain = 0
KWE2 091312Z 35007KT M04/M05 A3035 RMK A01 T10431050  RH  095%=      5-min Rain = 0
KWE2 091313Z 36006KT M04/M05 A3035 RMK A01 T10431051  RH  094%=      5-min Rain = 0
KWE2 091314Z 35006KT M04/M05 A3035 RMK A01 T10431050  RH  094%=      5-min Rain = 0
KWE2 091315Z 36006KT M04/M05 A3035 RMK A01 T10431051  RH  094%=      5-min Rain = 0
KWE2 091316Z 36007KT M04/M05 A3035 RMK A01 T10431051  RH  094%=      5-min Rain = 0
KWE2 091317Z 36007KT M04/M05 A3035 RMK A01 T10431051  RH  094%=      5-min Rain = 0
KWE2 091318Z 36006KT M04/M05 A3035 RMK A01 T10431051  RH  094%=      5-min Rain = 0
KWE2 091319Z 00006KT M04/M05 A3035 RMK A01 T10431051  RH  094%=      5-min Rain = 0
KWE2 091320Z 36005KT M04/M05 A3035 RMK A01 T10431051  RH  094%=      5-min Rain = 0
KWE2 091321Z 36006KT M04/M05 A3035 RMK A01 T10431051  RH  094%=      5-min Rain = 0
KWE2 091322Z 36006KT M04/M05 A3035 RMK A01 T10431051  RH  094%=      5-min Rain = 0
KWE2 091323Z 36005KT M04/M05 A3035 RMK A01 T10431051  RH  094%=      5-min Rain = 0
KWE2 091324Z 35004KT M04/M05 A3035 RMK A01 T10431050  RH  095%=      5-min Rain = 0
KWE2 091325Z 35005KT M04/M05 A3035 RMK A01 T10421050  RH  095%=      5-min Rain = 0
KWE2 091326Z 35005KT M04/M05 A3035 RMK A01 T10421050  RH  095%=      5-min Rain = 0
KWE2 091327Z 34004KT M04/M05 A3035 RMK A01 T10421050  RH  095%=      5-min Rain = 0
KWE2 091328Z 34005KT M04/M05 A3035 RMK A01 T10421050  RH  095%=      5-min Rain = 0
KWE2 091329Z 34004KT M04/M05 A3035 RMK A01 T10421050  RH  095%=      5-min Rain = 0
KWE2 091330Z 34005KT M04/M05 A3035 RMK A01 T10421050  RH  095%=      5-min Rain = 0
KWE2 091331Z 34005KT M04/M05 A3035 RMK A01 T10421050  RH  095%=      5-min Rain = 0
KWE2 091332Z 34005KT M04/M05 A3035 RMK A01 T10421050  RH  094%=      5-min Rain = 0
KWE2 091333Z 34004KT M04/M05 A3035 RMK A01 T10431050  RH  094%=      5-min Rain = 0
KWE2 091334Z 34006KT M04/M05 A3035 RMK A01 T10431050  RH  095%=      5-min Rain = 0
KWE2 091335Z 35006KT M04/M05 A3035 RMK A01 T10431050  RH  095%=      5-min Rain = 0
KWE2 091336Z 35005KT M04/M05 A3035 RMK A01 T10431050  RH  094%=      5-min Rain = 0
KWE2 091337Z 35005KT M04/M05 A3035 RMK A01 T10421050  RH  094%=      5-min Rain = 0
KWE2 091338Z 35006KT M04/M05 A3035 RMK A01 T10421050  RH  094%=      5-min Rain = 0
KWE2 091339Z 35006KT M04/M05 A3035 RMK A01 T10431051  RH  094%=      5-min Rain = 0
KWE2 091340Z 35006KT M04/M05 A3035 RMK A01 T10431051  RH  094%=      5-min Rain = 0
KWE2 091341Z 35005KT M04/M05 A3035 RMK A01 T10431051  RH  094%=      5-min Rain = 0
KWE2 091342Z 34006KT M04/M05 A3036 RMK A01 T10421050  RH  094%=      5-min Rain = 0
KWE2 091343Z 34006KT M04/M05 A3036 RMK A01 T10421050  RH  094%=      5-min Rain = 0
KWE2 091344Z 34005KT M04/M05 A3036 RMK A01 T10421051  RH  094%=      5-min Rain = 0
KWE2 091345Z 35006KT M04/M05 A3036 RMK A01 T10421051  RH  094%=      5-min Rain = 0
KWE2 091346Z 35006KT M04/M05 A3036 RMK A01 T10431051  RH  094%=      5-min Rain = 0
KWE2 091347Z 34006KT M04/M05 A3036 RMK A01 T10431051  RH  094%=      5-min Rain = 0
KWE2 091348Z 35006KT M04/M05 A3036 RMK A01 T10421050  RH  094%=      5-min Rain = 0
KWE2 091349Z 35007KT M04/M05 A3036 RMK A01 T10421050  RH  094%=      5-min Rain = 0
KWE2 091350Z 35006KT M04/M05 A3036 RMK A01 T10421050  RH  094%=      5-min Rain = 0
KWE2 091351Z 35007KT M04/M05 A3036 RMK A01 T10421051  RH  094%=      5-min Rain = 0
KWE2 091352Z 35007KT M04/M05 A3036 RMK A01 T10421051  RH  094%=      5-min Rain = 0
KWE2 091353Z 35007KT M04/M05 A3036 RMK A01 T10421051  RH  094%=      5-min Rain = 0
KWE2 091354Z 35007KT M04/M05 A3036 RMK A01 T10421051  RH  094%=      5-min Rain = 0
KWE2 091355Z 35006KT M04/M05 A3036 RMK A01 T10421051  RH  094%=      5-min Rain = 0
KWE2 091356Z 35006KT M04/M05 A3036 RMK A01 T10421051  RH  094%=      5-min Rain = 0
KWE2 091357Z 35007KT M04/M05 A3036 RMK A01 T10421050  RH  094%=      5-min Rain = 0
KWE2 091358Z 35006KT M04/M05 A3036 RMK A01 T10421050  RH  094%=      5-min Rain = 0
KWE2 091359Z 35007KT M04/M05 A3036 RMK A01 T10421051  RH  094%=      5-min Rain = 0
KWE2 091400Z 35006KT M04/M05 A3036 RMK A01 T10421051  RH  093%=      5-min Rain = 0
KWE2 091401Z 35005KT M04/M05 A3036 RMK A01 T10411050  RH  094%=      5-min Rain = 0
KWE2 091402Z 35005KT M04/M05 A3036 RMK A01 T10411049  RH  094%=      5-min Rain = 0
KWE2 091403Z 35006KT M04/M05 A3036 RMK A01 T10411049  RH  094%=      5-min Rain = 0
KWE2 091404Z 35006KT M04/M05 A3036 RMK A01 T10411050  RH  094%=      5-min Rain = 0
KWE2 091405Z 35006KT M04/M05 A3036 RMK A01 T10411050  RH  093%=      5-min Rain = 0
KWE2 091406Z 35006KT M04/M05 A3036 RMK A01 T10411050  RH  093%=      5-min Rain = 0
KWE2 091407Z 35005KT M04/M05 A3036 RMK A01 T10411051  RH  093%=      5-min Rain = 0
KWE2 091408Z 35004KT M04/M05 A3036 RMK A01 T10411050  RH  093%=      5-min Rain = 0
KWE2 091409Z 35007KT M04/M05 A3036 RMK A01 T10401049  RH  094%=      5-min Rain = 0
KWE2 091410Z 35007KT M04/M05 A3036 RMK A01 T10401050  RH  093%=      5-min Rain = 0
KWE2 091411Z 35008KT M04/M05 A3036 RMK A01 T10401051  RH  093%=      5-min Rain = 0
KWE2 091412Z 35007KT M04/M05 A3036 RMK A01 T10401051  RH  093%=      5-min Rain = 0
KWE2 091413Z 35006KT M04/M05 A3037 RMK A01 T10401051  RH  092%=      5-min Rain = 0
KWE2 091414Z 35007KT M04/M05 A3037 RMK A01 T10401050  RH  093%=      5-min Rain = 0
KWE2 091415Z 35007KT M04/M05 A3037 RMK A01 T10401050  RH  093%=      5-min Rain = 0
KWE2 091416Z 36007KT M04/M05 A3037 RMK A01 T10401050  RH  093%=      5-min Rain = 0
KWE2 091417Z 35007KT M04/M05 A3037 RMK A01 T10401049  RH  093%=      5-min Rain = 0
KWE2 091418Z 35007KT M04/M05 A3037 RMK A01 T10391049  RH  093%=      5-min Rain = 0
KWE2 091419Z 35007KT M04/M05 A3037 RMK A01 T10391049  RH  093%=      5-min Rain = 0
KWE2 091420Z 35007KT M04/M05 A3037 RMK A01 T10391048  RH  093%=      5-min Rain = 0
KWE2 091421Z 35007KT M04/M05 A3037 RMK A01 T10381048  RH  093%=      5-min Rain = 0
KWE2 091422Z 35008KT M04/M05 A3037 RMK A01 T10381047  RH  093%=      5-min Rain = 0
KWE2 091423Z 35007KT M04/M05 A3037 RMK A01 T10381047  RH  093%=      5-min Rain = 0
KWE2 091424Z 35007KT M04/M05 A3037 RMK A01 T10381047  RH  093%=      5-min Rain = 0
KWE2 091425Z 35007KT M04/M05 A3037 RMK A01 T10381048  RH  093%=      5-min Rain = 0
KWE2 091426Z 35007KT M04/M05 A3037 RMK A01 T10371048  RH  093%=      5-min Rain = 0
KWE2 091427Z 35007KT M04/M05 A3037 RMK A01 T10381048  RH  093%=      5-min Rain = 0
KWE2 091428Z 35006KT M04/M05 A3037 RMK A01 T10371047  RH  093%=      5-min Rain = 0
KWE2 091429Z 35007KT M04/M05 A3037 RMK A01 T10361046  RH  093%=      5-min Rain = 0
KWE2 091430Z 35006KT M04/M05 A3038 RMK A01 T10361046  RH  093%=      5-min Rain = 0
KWE2 091431Z 35006KT M04/M05 A3038 RMK A01 T10361045  RH  093%=      5-min Rain = 0
KWE2 091432Z 35006KT M04/M05 A3038 RMK A01 T10351045  RH  093%=      5-min Rain = 0
KWE2 091433Z 35006KT M04/M05 A3038 RMK A01 T10351045  RH  093%=      5-min Rain = 0
KWE2 091434Z 35005KT M04/M05 A3038 RMK A01 T10351045  RH  093%=      5-min Rain = 0
KWE2 091435Z 35006KT M04/M05 A3038 RMK A01 T10351045  RH  093%=      5-min Rain = 0
KWE2 091436Z 35007KT M04/M04 A3038 RMK A01 T10351044  RH  093%=      5-min Rain = 0
KWE2 091437Z 35007KT M04/M05 A3038 RMK A01 T10351045  RH  093%=      5-min Rain = 0
KWE2 091438Z 35007KT M03/M04 A3038 RMK A01 T10341044  RH  093%=      5-min Rain = 0
KWE2 091439Z 35006KT M03/M04 A3038 RMK A01 T10341044  RH  093%=      5-min Rain = 0
KWE2 091440Z 35006KT M03/M04 A3038 RMK A01 T10341044  RH  093%=      5-min Rain = 0
KWE2 091441Z 35007KT M03/M04 A3038 RMK A01 T10341043  RH  093%=      5-min Rain = 0
KWE2 091442Z 35007KT M03/M04 A3038 RMK A01 T10331043  RH  093%=      5-min Rain = 0
KWE2 091443Z 35008KT M03/M04 A3038 RMK A01 T10341044  RH  093%=      5-min Rain = 0
KWE2 091444Z 35006KT M03/M04 A3038 RMK A01 T10331044  RH  093%=      5-min Rain = 0
KWE2 091445Z 35007KT M03/M04 A3038 RMK A01 T10331043  RH  093%=      5-min Rain = 0
KWE2 091446Z 35006KT M03/M04 A3038 RMK A01 T10331043  RH  093%=      5-min Rain = 0
KWE2 091447Z 35005KT M03/M04 A3038 RMK A01 T10321043  RH  092%=      5-min Rain = 0
KWE2 091448Z 34005KT M03/M04 A3038 RMK A01 T10321042  RH  093%=      5-min Rain = 0
KWE2 091449Z 34006KT M03/M04 A3038 RMK A01 T10311040  RH  094%=      5-min Rain = 0
KWE2 091450Z 34007KT M03/M04 A3038 RMK A01 T10301039  RH  094%=      5-min Rain = 0
KWE2 091451Z 35007KT M03/M04 A3038 RMK A01 T10301040  RH  093%=      5-min Rain = 0
KWE2 091452Z 35006KT M03/M04 A3038 RMK A01 T10301040  RH  093%=      5-min Rain = 0
KWE2 091453Z 35005KT M03/M04 A3039 RMK A01 T10301040  RH  093%=      5-min Rain = 0
KWE2 091454Z 35005KT M03/M04 A3039 RMK A01 T10291039  RH  093%=      5-min Rain = 0
KWE2 091455Z 34007KT M03/M04 A3039 RMK A01 T10291038  RH  093%=      5-min Rain = 0
KWE2 091456Z 35007KT M03/M04 A3039 RMK A01 T10291040  RH  092%=      5-min Rain = 0
KWE2 091457Z 35008KT M03/M04 A3039 RMK A01 T10291040  RH  092%=      5-min Rain = 0
KWE2 091458Z 35006KT M03/M04 A3039 RMK A01 T10301041  RH  092%=      5-min Rain = 0
KWE2 091459Z 35007KT M03/M04 A3039 RMK A01 T10291040  RH  092%=      5-min Rain = 0
KWE2 091500Z 35007KT M03/M04 A3039 RMK A01 T10291040  RH  093%=      5-min Rain = 0
KWE2 091501Z 35006KT M03/M04 A3039 RMK A01 T10291039  RH  093%=      5-min Rain = 0
KWE2 091502Z 35005KT M03/M04 A3039 RMK A01 T10281038  RH  093%=      5-min Rain = 0
KWE2 091503Z 34005KT M03/M04 A3039 RMK A01 T10281037  RH  093%=      5-min Rain = 0
KWE2 091504Z 34006KT M03/M04 A3039 RMK A01 T10281037  RH  093%=      5-min Rain = 0
KWE2 091505Z 33005KT M03/M04 A3039 RMK A01 T10271036  RH  093%=      5-min Rain = 0
KWE2 091506Z 33006KT M03/M04 A3039 RMK A01 T10271037  RH  093%=      5-min Rain = 0
KWE2 091507Z 33006KT M03/M04 A3039 RMK A01 T10271037  RH  093%=      5-min Rain = 0
KWE2 091508Z 33006KT M03/M04 A3039 RMK A01 T10271037  RH  093%=      5-min Rain = 0
KWE2 091509Z 33007KT M03/M04 A3039 RMK A01 T10271037  RH  093%=      5-min Rain = 0
KWE2 091510Z 34006KT M03/M04 A3039 RMK A01 T10271037  RH  093%=      5-min Rain = 0
KWE2 091511Z 33005KT M03/M04 A3039 RMK A01 T10271038  RH  092%=      5-min Rain = 0
KWE2 091512Z 33005KT M03/M04 A3039 RMK A01 T10271036  RH  093%=      5-min Rain = 0
KWE2 091513Z 34006KT M03/M04 A3039 RMK A01 T10261036  RH  093%=      5-min Rain = 0
KWE2 091514Z 34006KT M03/M04 A3039 RMK A01 T10261036  RH  093%=      5-min Rain = 0
KWE2 091515Z 33005KT M03/M04 A3039 RMK A01 T10261036  RH  092%=      5-min Rain = 0
KWE2 091516Z 33005KT M03/M04 A3039 RMK A01 T10261036  RH  093%=      5-min Rain = 0
KWE2 091517Z 33006KT M03/M04 A3039 RMK A01 T10261036  RH  093%=      5-min Rain = 0
KWE2 091518Z 33006KT M03/M04 A3039 RMK A01 T10261036  RH  093%=      5-min Rain = 0
KWE2 091519Z 33007KT M03/M04 A3039 RMK A01 T10251036  RH  093%=      5-min Rain = 0
KWE2 091520Z 33006KT M03/M04 A3039 RMK A01 T10251036  RH  092%=      5-min Rain = 0
KWE2 091521Z 33006KT M03/M04 A3039 RMK A01 T10251037  RH  092%=      5-min Rain = 0
KWE2 091522Z 33006KT M03/M04 A3039 RMK A01 T10251037  RH  092%=      5-min Rain = 0
KWE2 091523Z 33006KT M03/M04 A3039 RMK A01 T10251037  RH  092%=      5-min Rain = 0
KWE2 091524Z 34006KT M03/M04 A3039 RMK A01 T10251036  RH  092%=      5-min Rain = 0
KWE2 091525Z 34006KT M02/M03 A3039 RMK A01 T10241034  RH  093%=      5-min Rain = 0
KWE2 091526Z 33006KT M02/M03 A3039 RMK A01 T10231034  RH  092%=      5-min Rain = 0
KWE2 091527Z 33006KT M02/M04 A3039 RMK A01 T10231035  RH  092%=      5-min Rain = 0
KWE2 091528Z 33006KT M02/M03 A304 RMK A01 T10231034  RH  092%=      5-min Rain = 0
KWE2 091529Z 34006KT M02/M03 A304 RMK A01 T10221033  RH  092%=      5-min Rain = 0
KWE2 091530Z 34006KT M02/M03 A304 RMK A01 T10221033  RH  092%=      5-min Rain = 0
KWE2 091531Z 33006KT M02/M03 A304 RMK A01 T10221034  RH  092%=      5-min Rain = 0
KWE2 091532Z 34006KT M02/M03 A304 RMK A01 T10221033  RH  092%=      5-min Rain = 0
KWE2 091533Z 34007KT M02/M03 A304 RMK A01 T10211032  RH  092%=      5-min Rain = 0
KWE2 091534Z 34007KT M02/M03 A304 RMK A01 T10201032  RH  092%=      5-min Rain = 0
KWE2 091535Z 34006KT M02/M03 A304 RMK A01 T10201031  RH  092%=      5-min Rain = 0
KWE2 091536Z 34006KT M02/M03 A304 RMK A01 T10201032  RH  092%=      5-min Rain = 0
KWE2 091537Z 34005KT M02/M03 A304 RMK A01 T10201031  RH  092%=      5-min Rain = 0
KWE2 091538Z 34005KT M02/M03 A304 RMK A01 T10191029  RH  093%=      5-min Rain = 0
KWE2 091539Z 34006KT M02/M03 A304 RMK A01 T10181027  RH  093%=      5-min Rain = 0
KWE2 091540Z 34006KT M02/M03 A304 RMK A01 T10171028  RH  093%=      5-min Rain = 0
KWE2 091541Z 33006KT M02/M03 A304 RMK A01 T10171028  RH  092%=      5-min Rain = 0
KWE2 091542Z 33006KT M02/M03 A304 RMK A01 T10171028  RH  092%=      5-min Rain = 0
KWE2 091543Z 34006KT M02/M03 A3041 RMK A01 T10161027  RH  093%=      5-min Rain = 0
KWE2 091544Z 34007KT M02/M03 A3041 RMK A01 T10151025  RH  093%=      5-min Rain = 0
KWE2 091545Z 33007KT M02/M03 A3041 RMK A01 T10161027  RH  092%=      5-min Rain = 0
KWE2 091546Z 33007KT M02/M03 A3041 RMK A01 T10161027  RH  092%=      5-min Rain = 0
KWE2 091547Z 33006KT M02/M03 A3041 RMK A01 T10151027  RH  092%=      5-min Rain = 0
KWE2 091548Z 34007KT M02/M03 A3041 RMK A01 T10151026  RH  093%=      5-min Rain = 0
KWE2 091549Z 33006KT M02/M03 A3041 RMK A01 T10151026  RH  092%=      5-min Rain = 0
KWE2 091550Z 33006KT M02/M03 A3041 RMK A01 T10151026  RH  092%=      5-min Rain = 0
KWE2 091551Z 33007KT M02/M03 A3041 RMK A01 T10151025  RH  092%=      5-min Rain = 0
KWE2 091552Z 33006KT M01/M03 A3041 RMK A01 T10141026  RH  092%=      5-min Rain = 0
KWE2 091553Z 33007KT M01/M02 A3041 RMK A01 T10141024  RH  093%=      5-min Rain = 0
KWE2 091554Z 33007KT M01/M03 A3041 RMK A01 T10141025  RH  092%=      5-min Rain = 0
KWE2 091555Z 33007KT M01/M03 A3041 RMK A01 T10141026  RH  091%=      5-min Rain = 0
KWE2 091556Z 33007KT M02/M03 A3041 RMK A01 T10151026  RH  092%=      5-min Rain = 0
KWE2 091557Z 33007KT M01/M03 A3041 RMK A01 T10141025  RH  092%=      5-min Rain = 0
KWE2 091558Z 33007KT M01/M03 A3041 RMK A01 T10141026  RH  091%=      5-min Rain = 0
KWE2 091559Z 33007KT M01/M03 A3041 RMK A01 T10141027  RH  091%=      5-min Rain = 0
KWE2 091600Z 33007KT M01/M03 A3041 RMK A01 T10141026  RH  091%=      5-min Rain = 0
KWE2 091601Z 33007KT M01/M03 A3041 RMK A01 T10141027  RH  091%=      5-min Rain = 0
KWE2 091602Z 33007KT M01/M03 A3041 RMK A01 T10141027  RH  091%=      5-min Rain = 0
KWE2 091603Z 33006KT M01/M03 A3041 RMK A01 T10131026  RH  091%=      5-min Rain = 0
KWE2 091604Z 33006KT M01/M02 A3041 RMK A01 T10121023  RH  092%=      5-min Rain = 0
KWE2 091605Z 33006KT M01/M02 A3041 RMK A01 T10111022  RH  092%=      5-min Rain = 0
KWE2 091606Z 33006KT M01/M02 A3041 RMK A01 T10101022  RH  092%=      5-min Rain = 0
KWE2 091607Z 33006KT M01/M02 A3041 RMK A01 T10101023  RH  091%=      5-min Rain = 0
KWE2 091608Z 34005KT M01/M02 A3041 RMK A01 T10101024  RH  091%=      5-min Rain = 0
KWE2 091609Z 34004KT M01/M02 A3041 RMK A01 T10091022  RH  091%=      5-min Rain = 0
KWE2 091610Z 33005KT M01/M02 A3041 RMK A01 T10081018  RH  093%=      5-min Rain = 0
KWE2 091611Z 34006KT M01/M02 A3041 RMK A01 T10061016  RH  093%=      5-min Rain = 0
KWE2 091612Z 34006KT M01/M02 A3041 RMK A01 T10061019  RH  091%=      5-min Rain = 0
KWE2 091613Z 33005KT M01/M02 A3041 RMK A01 T10071021  RH  090%=      5-min Rain = 0
KWE2 091614Z 33006KT M01/M02 A3041 RMK A01 T10071022  RH  090%=      5-min Rain = 0
KWE2 091615Z 34006KT M01/M02 A3041 RMK A01 T10071021  RH  090%=      5-min Rain = 0
KWE2 091616Z 33005KT M01/M02 A3041 RMK A01 T10081023  RH  090%=      5-min Rain = 0
KWE2 091617Z 33006KT M01/M02 A3041 RMK A01 T10071021  RH  090%=      5-min Rain = 0
KWE2 091618Z 33006KT M01/M02 A3041 RMK A01 T10071020  RH  091%=      5-min Rain = 0
KWE2 091619Z 34006KT M01/M02 A3041 RMK A01 T10061019  RH  091%=      5-min Rain = 0
KWE2 091620Z 32006KT M00/M02 A3041 RMK A01 T10041016  RH  092%=      5-min Rain = 0
KWE2 091621Z 33006KT M00/M02 A3041 RMK A01 T10041017  RH  091%=      5-min Rain = 0
KWE2 091622Z 33007KT M00/M02 A3041 RMK A01 T10041017  RH  091%=      5-min Rain = 0
KWE2 091623Z 34006KT M00/M02 A3041 RMK A01 T10041019  RH  090%=      5-min Rain = 0
KWE2 091624Z 33006KT M00/M02 A3042 RMK A01 T10041018  RH  090%=      5-min Rain = 0
KWE2 091625Z 34007KT M00/M02 A3041 RMK A01 T10021015  RH  091%=      5-min Rain = 0
KWE2 091626Z 34007KT M00/M02 A3041 RMK A01 T10021016  RH  090%=      5-min Rain = 0
KWE2 091627Z 34007KT M00/M02 A3041 RMK A01 T10021017  RH  090%=      5-min Rain = 0
KWE2 091628Z 33006KT M00/M02 A3041 RMK A01 T10021016  RH  090%=      5-min Rain = 0
KWE2 091629Z 33007KT 00/01 A3041 RMK A01 T00-00-14  RH  091%=      5-min Rain = 0
KWE2 091630Z 33006KT 00/02 A3041 RMK A01 T00-00-15  RH  090%=      5-min Rain = 0
KWE2 091631Z 33006KT 00/02 A3041 RMK A01 T00-00-16  RH  089%=      5-min Rain = 0
KWE2 091632Z 33006KT M00/M02 A3041 RMK A01 T10011016  RH  089%=      5-min Rain = 0
KWE2 091633Z 34006KT 00/02 A3041 RMK A01 T00-00-15  RH  090%=      5-min Rain = 0
KWE2 091634Z 34006KT 00/M02 A3041 RMK A01 T00011015  RH  089%=      5-min Rain = 0
KWE2 091635Z 34005KT 00/M02 A3041 RMK A01 T00011016  RH  089%=      5-min Rain = 0
KWE2 091636Z 34006KT 00/M01 A3041 RMK A01 T00021012  RH  090%=      5-min Rain = 0
KWE2 091637Z 34006KT 00/M01 A3041 RMK A01 T00021014  RH  089%=      5-min Rain = 0
KWE2 091638Z 33006KT 00/M02 A3041 RMK A01 T00021016  RH  088%=      5-min Rain = 0
KWE2 091639Z 34005KT 00/M02 A3041 RMK A01 T00021016  RH  088%=      5-min Rain = 0
KWE2 091640Z 34005KT 00/M02 A3041 RMK A01 T00011016  RH  088%=      5-min Rain = 0
KWE2 091641Z 33005KT 00/M02 A3041 RMK A01 T00021015  RH  089%=      5-min Rain = 0
KWE2 091642Z 32005KT 00/M01 A3042 RMK A01 T00031014  RH  088%=      5-min Rain = 0
KWE2 091643Z 32005KT 00/M01 A3042 RMK A01 T00031014  RH  089%=      5-min Rain = 0
KWE2 091644Z 32005KT 00/M01 A3042 RMK A01 T00041011  RH  089%=      5-min Rain = 0
KWE2 091645Z 32005KT 01/M01 A3042 RMK A01 T00051012  RH  089%=      5-min Rain = 0
KWE2 091646Z 32005KT 01/M01 A3042 RMK A01 T00061011  RH  089%=      5-min Rain = 0
KWE2 091647Z 32005KT 01/M01 A3042 RMK A01 T00061011  RH  088%=      5-min Rain = 0
KWE2 091648Z 33005KT 01/M01 A3042 RMK A01 T00071013  RH  087%=      5-min Rain = 0
KWE2 091649Z 32006KT 01/M01 A3042 RMK A01 T00061013  RH  087%=      5-min Rain = 0
KWE2 091650Z 32004KT 01/M01 A3042 RMK A01 T00061013  RH  087%=      5-min Rain = 0
KWE2 091651Z 31005KT 01/M01 A3042 RMK A01 T00071010  RH  088%=      5-min Rain = 0
KWE2 091652Z 30005KT 01/M01 A3042 RMK A01 T00081009  RH  088%=      5-min Rain = 0
KWE2 091653Z 30005KT 01/M01 A3042 RMK A01 T00081011  RH  087%=      5-min Rain = 0
KWE2 091654Z 31005KT 01/M01 A3042 RMK A01 T00081012  RH  087%=      5-min Rain = 0
KWE2 091655Z 32004KT 01/M01 A3042 RMK A01 T00081011  RH  087%=      5-min Rain = 0
KWE2 091656Z 31005KT 01/M01 A3042 RMK A01 T00091007  RH  089%=      5-min Rain = 0
KWE2 091657Z 32005KT 01/M01 A3042 RMK A01 T00091009  RH  087%=      5-min Rain = 0
KWE2 091658Z 32005KT 01/M01 A3042 RMK A01 T00091012  RH  086%=      5-min Rain = 0
KWE2 091659Z 32004KT 01/M01 A3042 RMK A01 T00081012  RH  087%=      5-min Rain = 0
KWE2 091700Z 32004KT 01/M01 A3042 RMK A01 T00091007  RH  089%=      5-min Rain = 0
KWE2 091701Z 34005KT 01/M01 A3042 RMK A01 T00111006  RH  088%=      5-min Rain = 0
KWE2 091702Z 33004KT 01/M01 A3042 RMK A01 T00111009  RH  087%=      5-min Rain = 0
KWE2 091703Z 34004KT 01/M01 A3041 RMK A01 T00111011  RH  086%=      5-min Rain = 0
KWE2 091704Z 34004KT 01/M01 A3041 RMK A01 T00111010  RH  086%=      5-min Rain = 0
KWE2 091705Z 35004KT 01/M01 A3041 RMK A01 T00121007  RH  087%=      5-min Rain = 0
KWE2 091706Z 34004KT 01/M01 A3041 RMK A01 T00141005  RH  087%=      5-min Rain = 0
KWE2 091707Z 34005KT 01/M01 A3041 RMK A01 T00141005  RH  087%=      5-min Rain = 0
KWE2 091708Z 35005KT 02/M00 A3041 RMK A01 T00161004  RH  087%=      5-min Rain = 0
KWE2 091709Z 34004KT 02/M01 A3041 RMK A01 T00151007  RH  085%=      5-min Rain = 0
KWE2 091710Z 34006KT 02/M01 A3041 RMK A01 T00151007  RH  086%=      5-min Rain = 0
KWE2 091711Z 33005KT 01/M01 A3041 RMK A01 T00141009  RH  084%=      5-min Rain = 0
KWE2 091712Z 35006KT 01/M01 A3041 RMK A01 T00141007  RH  086%=      5-min Rain = 0
KWE2 091713Z 36005KT 02/M01 A3041 RMK A01 T00151006  RH  086%=      5-min Rain = 0
KWE2 091714Z 00005KT 02/M01 A3041 RMK A01 T00161007  RH  085%=      5-min Rain = 0
KWE2 091715Z 01004KT 02/M00 A3041 RMK A01 T00161004  RH  087%=      5-min Rain = 0
KWE2 091716Z 36006KT 02/M00 A3041 RMK A01 T00171003  RH  086%=      5-min Rain = 0
KWE2 091717Z 34005KT 02/M01 A3041 RMK A01 T00171005  RH  085%=      5-min Rain = 0
KWE2 091718Z 34006KT 02/M00 A3041 RMK A01 T00181003  RH  086%=      5-min Rain = 0
KWE2 091719Z 35005KT 02/M00 A3041 RMK A01 T00191003  RH  086%=      5-min Rain = 0
KWE2 091720Z 35005KT 02/M01 A3041 RMK A01 T00171007  RH  084%=      5-min Rain = 0
KWE2 091721Z 35005KT 02/M01 A3041 RMK A01 T00171007  RH  084%=      5-min Rain = 0
KWE2 091722Z 36006KT 02/M01 A3041 RMK A01 T00171006  RH  085%=      5-min Rain = 0
KWE2 091723Z 35006KT 02/M01 A3041 RMK A01 T00171006  RH  085%=      5-min Rain = 0
KWE2 091724Z 35006KT 02/M01 A3041 RMK A01 T00171005  RH  085%=      5-min Rain = 0
KWE2 091725Z 35006KT 02/M00 A3041 RMK A01 T00181004  RH  085%=      5-min Rain = 0
KWE2 091726Z 35006KT 02/M01 A304 RMK A01 T00171006  RH  084%=      5-min Rain = 0
KWE2 091727Z 35006KT 02/M01 A304 RMK A01 T00181005  RH  085%=      5-min Rain = 0
KWE2 091728Z 35006KT 02/M01 A304 RMK A01 T00171009  RH  083%=      5-min Rain = 0
KWE2 091729Z 35007KT 02/M00 A304 RMK A01 T00181002  RH  087%=      5-min Rain = 0.01
KWE2 091730Z 34006KT 02/M00 A304 RMK A01 T00191003  RH  085%=      5-min Rain = 0
KWE2 091731Z 33006KT 02/M00 A304 RMK A01 T00191004  RH  085%=      5-min Rain = 0
KWE2 091732Z 33006KT 02/M00 A304 RMK A01 T00181004  RH  085%=      5-min Rain = 0
KWE2 091733Z 34006KT 02/M00 A304 RMK A01 T00181004  RH  085%=      5-min Rain = 0
KWE2 091734Z 33007KT 02/M00 A304 RMK A01 T00191003  RH  085%=      5-min Rain = 0
KWE2 091735Z 33007KT 02/00 A304 RMK A01 T002000-0  RH  086%=      5-min Rain = 0
KWE2 091736Z 33006KT 02/M00 A304 RMK A01 T00211001  RH  085%=      5-min Rain = 0
KWE2 091737Z 33006KT 02/M00 A304 RMK A01 T00211001  RH  085%=      5-min Rain = 0
KWE2 091738Z 33006KT 02/00 A304 RMK A01 T00230002  RH  086%=      5-min Rain = 0
KWE2 091739Z 33006KT 02/M00 A304 RMK A01 T00231001  RH  084%=      5-min Rain = 0
KWE2 091740Z 33007KT 02/M00 A304 RMK A01 T00231002  RH  084%=      5-min Rain = 0
KWE2 091741Z 34007KT 02/M00 A304 RMK A01 T00231001  RH  084%=      5-min Rain = 0
KWE2 091742Z 34006KT 02/M00 A304 RMK A01 T00231001  RH  084%=      5-min Rain = 0
KWE2 091743Z 34005KT 02/M00 A304 RMK A01 T00241001  RH  084%=      5-min Rain = 0
KWE2 091744Z 34007KT 02/00 A304 RMK A01 T00240001  RH  084%=      5-min Rain = 0
KWE2 091745Z 00008KT 03/00 A304 RMK A01 T00260002  RH  084%=      5-min Rain = 0
KWE2 091746Z 36006KT 03/M00 A304 RMK A01 T00261002  RH  082%=      5-min Rain = 0
KWE2 091747Z 36007KT 03/M00 A304 RMK A01 T00271001  RH  082%=      5-min Rain = 0
KWE2 091748Z 35005KT 03/M00 A304 RMK A01 T00281003  RH  080%=      5-min Rain = 0
KWE2 091749Z 36006KT 03/00 A304 RMK A01 T00280001  RH  083%=      5-min Rain = 0
KWE2 091750Z 00006KT 03/00 A304 RMK A01 T00290002  RH  082%=      5-min Rain = 0
KWE2 091751Z 00006KT 03/00 A304 RMK A01 T00310004  RH  083%=      5-min Rain = 0
KWE2 091752Z 00005KT 03/M00 A304 RMK A01 T00311001  RH  079%=      5-min Rain = 0
KWE2 091753Z 36006KT 03/00 A304 RMK A01 T003100-0  RH  080%=      5-min Rain = 0
KWE2 091754Z 00005KT 03/00 A304 RMK A01 T00320003  RH  081%=      5-min Rain = 0
KWE2 091755Z 02005KT 03/00 A304 RMK A01 T00320001  RH  080%=      5-min Rain = 0
KWE2 091756Z 02004KT 03/00 A304 RMK A01 T00330001  RH  080%=      5-min Rain = 0
KWE2 091757Z 00005KT 03/00 A304 RMK A01 T00330002  RH  080%=      5-min Rain = 0
KWE2 091758Z 00005KT 03/00 A304 RMK A01 T00340001  RH  079%=      5-min Rain = 0
KWE2 091759Z 00006KT 03/00 A304 RMK A01 T00340001  RH  079%=      5-min Rain = 0
KWE2 091800Z 02005KT 03/M00 A3039 RMK A01 T00341001  RH  078%=      5-min Rain = 0
KWE2 091801Z 01004KT 03/M00 A3039 RMK A01 T00341002  RH  078%=      5-min Rain = 0
KWE2 091802Z 01006KT 03/M00 A3039 RMK A01 T00341002  RH  077%=      5-min Rain = 0
KWE2 091803Z 01005KT 03/M00 A3039 RMK A01 T00331001  RH  078%=      5-min Rain = 0
KWE2 091804Z 35004KT 03/00 A3039 RMK A01 T003300-0  RH  079%=      5-min Rain = 0
KWE2 091805Z 34004KT 03/00 A3039 RMK A01 T00330001  RH  080%=      5-min Rain = 0
KWE2 091806Z 33004KT 03/M00 A3039 RMK A01 T00341002  RH  077%=      5-min Rain = 0
KWE2 091807Z 35005KT 03/M00 A3039 RMK A01 T00341003  RH  077%=      5-min Rain = 0
KWE2 091808Z 35005KT 04/01 A3039 RMK A01 T00350005  RH  081%=      5-min Rain = 0
KWE2 091809Z 33003KT 04/00 A3039 RMK A01 T00360003  RH  079%=      5-min Rain = 0
KWE2 091810Z 33002KT 04/00 A3039 RMK A01 T00360001  RH  078%=      5-min Rain = 0
KWE2 091811Z 32004KT 04/00 A3039 RMK A01 T00360003  RH  079%=      5-min Rain = 0
KWE2 091812Z 33003KT 04/00 A3039 RMK A01 T00360002  RH  078%=      5-min Rain = 0
KWE2 091813Z 33003KT 04/00 A3039 RMK A01 T00360004  RH  079%=      5-min Rain = 0
KWE2 091814Z 32004KT 04/00 A3039 RMK A01 T00360002  RH  079%=      5-min Rain = 0
KWE2 091815Z 32005KT 04/01 A3039 RMK A01 T00360005  RH  080%=      5-min Rain = 0
KWE2 091816Z 31004KT 04/00 A3039 RMK A01 T00370004  RH  079%=      5-min Rain = 0
KWE2 091817Z 30004KT 04/00 A3039 RMK A01 T00370004  RH  079%=      5-min Rain = 0
KWE2 091818Z 32005KT 04/01 A3039 RMK A01 T00370006  RH  080%=      5-min Rain = 0
KWE2 091819Z 33006KT 04/01 A3039 RMK A01 T00400012  RH  082%=      5-min Rain = 0
KWE2 091820Z 32004KT 04/00 A3039 RMK A01 T00400004  RH  077%=      5-min Rain = 0
KWE2 091821Z 32004KT 04/00 A3039 RMK A01 T00390003  RH  077%=      5-min Rain = 0
KWE2 091822Z 30004KT 04/00 A3039 RMK A01 T00390004  RH  078%=      5-min Rain = 0
KWE2 091823Z 32006KT 04/01 A3039 RMK A01 T00390006  RH  079%=      5-min Rain = 0
KWE2 091824Z 32005KT 04/01 A3039 RMK A01 T00390005  RH  079%=      5-min Rain = 0
KWE2 091825Z 31006KT 04/01 A3039 RMK A01 T00390007  RH  079%=      5-min Rain = 0
KWE2 091826Z 32004KT 04/00 A3039 RMK A01 T00390004  RH  078%=      5-min Rain = 0
KWE2 091827Z 32004KT 04/00 A3039 RMK A01 T00390003  RH  078%=      5-min Rain = 0
KWE2 091828Z 29002KT 04/01 A3038 RMK A01 T00390005  RH  079%=      5-min Rain = 0
KWE2 091829Z 31004KT 04/00 A3038 RMK A01 T00390003  RH  077%=      5-min Rain = 0
KWE2 091830Z 31004KT 04/01 A3038 RMK A01 T00400006  RH  079%=      5-min Rain = 0
KWE2 091831Z 31005KT 04/01 A3038 RMK A01 T00410010  RH  080%=      5-min Rain = 0
KWE2 091832Z 33004KT 04/01 A3038 RMK A01 T00420007  RH  078%=      5-min Rain = 0
KWE2 091833Z 29003KT 04/01 A3038 RMK A01 T00420008  RH  078%=      5-min Rain = 0
KWE2 091834Z 29004KT 04/01 A3038 RMK A01 T00440011  RH  079%=      5-min Rain = 0
KWE2 091835Z 29004KT 05/01 A3038 RMK A01 T00450013  RH  080%=      5-min Rain = 0
KWE2 091836Z 33004KT 05/01 A3038 RMK A01 T00460008  RH  076%=      5-min Rain = 0
KWE2 091837Z 34005KT 05/01 A3038 RMK A01 T00460007  RH  076%=      5-min Rain = 0
KWE2 091838Z 32005KT 05/01 A3038 RMK A01 T00450005  RH  075%=      5-min Rain = 0
KWE2 091839Z 31004KT 04/01 A3038 RMK A01 T00440006  RH  076%=      5-min Rain = 0
KWE2 091840Z 33004KT 04/01 A3038 RMK A01 T00440006  RH  076%=      5-min Rain = 0
KWE2 091841Z 34004KT 05/01 A3038 RMK A01 T00450005  RH  076%=      5-min Rain = 0
KWE2 091842Z 35005KT 05/01 A3038 RMK A01 T00460006  RH  076%=      5-min Rain = 0
KWE2 091843Z 34004KT 05/01 A3038 RMK A01 T00460005  RH  075%=      5-min Rain = 0
KWE2 091844Z 34005KT 05/01 A3038 RMK A01 T00460005  RH  075%=      5-min Rain = 0
KWE2 091845Z 33002KT 05/00 A3038 RMK A01 T00450002  RH  073%=      5-min Rain = 0
KWE2 091846Z 33003KT 05/00 A3038 RMK A01 T00450003  RH  074%=      5-min Rain = 0
KWE2 091847Z 32004KT 05/01 A3038 RMK A01 T00460006  RH  075%=      5-min Rain = 0
KWE2 091848Z 32003KT 05/00 A3038 RMK A01 T00470001  RH  072%=      5-min Rain = 0
KWE2 091849Z 34005KT 05/00 A3037 RMK A01 T00470004  RH  074%=      5-min Rain = 0
KWE2 091850Z 34004KT 05/00 A3037 RMK A01 T00470004  RH  074%=      5-min Rain = 0
KWE2 091851Z 34004KT 05/00 A3037 RMK A01 T00470001  RH  072%=      5-min Rain = 0
KWE2 091852Z 00004KT 05/00 A3037 RMK A01 T00470004  RH  074%=      5-min Rain = 0
KWE2 091853Z 35003KT 05/M00 A3037 RMK A01 T00471001  RH  071%=      5-min Rain = 0
KWE2 091854Z 34005KT 05/00 A3037 RMK A01 T004600-0  RH  072%=      5-min Rain = 0
KWE2 091855Z 33005KT 05/00 A3037 RMK A01 T00470004  RH  074%=      5-min Rain = 0
KWE2 091856Z 32004KT 05/00 A3037 RMK A01 T004600-0  RH  072%=      5-min Rain = 0
KWE2 091857Z 34004KT 05/00 A3037 RMK A01 T004600-0  RH  072%=      5-min Rain = 0
KWE2 091858Z 36005KT 05/00 A3037 RMK A01 T00460001  RH  073%=      5-min Rain = 0
KWE2 091859Z 35005KT 05/00 A3037 RMK A01 T00460000  RH  072%=      5-min Rain = 0
KWE2 091900Z 34004KT 05/00 A3037 RMK A01 T00460004  RH  074%=      5-min Rain = 0
KWE2 091901Z 33005KT 05/00 A3037 RMK A01 T00470002  RH  073%=      5-min Rain = 0
KWE2 091902Z 32004KT 05/01 A3037 RMK A01 T00480005  RH  074%=      5-min Rain = 0
KWE2 091903Z 32005KT 05/01 A3037 RMK A01 T00490008  RH  075%=      5-min Rain = 0
KWE2 091904Z 34006KT 05/01 A3037 RMK A01 T00490007  RH  074%=      5-min Rain = 0
KWE2 091905Z 34005KT 05/01 A3037 RMK A01 T00490007  RH  074%=      5-min Rain = 0
KWE2 091906Z 33004KT 05/01 A3037 RMK A01 T00490006  RH  074%=      5-min Rain = 0
KWE2 091907Z 33003KT 05/01 A3036 RMK A01 T00490006  RH  074%=      5-min Rain = 0
KWE2 091908Z 34004KT 05/01 A3036 RMK A01 T00490008  RH  075%=      5-min Rain = 0
KWE2 091909Z 36004KT 05/01 A3036 RMK A01 T00510008  RH  074%=      5-min Rain = 0
KWE2 091910Z 34004KT 05/00 A3036 RMK A01 T00500004  RH  072%=      5-min Rain = 0
KWE2 091911Z 34005KT 05/00 A3036 RMK A01 T00490004  RH  072%=      5-min Rain = 0
KWE2 091912Z 33005KT 05/00 A3036 RMK A01 T00480003  RH  073%=      5-min Rain = 0
KWE2 091913Z 36004KT 05/00 A3036 RMK A01 T00480002  RH  072%=      5-min Rain = 0
KWE2 091914Z 36004KT 05/00 A3036 RMK A01 T00490000  RH  071%=      5-min Rain = 0
KWE2 091915Z 00003KT 05/00 A3036 RMK A01 T00500001  RH  071%=      5-min Rain = 0
KWE2 091916Z 32004KT 05/01 A3036 RMK A01 T00500005  RH  072%=      5-min Rain = 0
KWE2 091917Z 36005KT 05/01 A3036 RMK A01 T00520010  RH  074%=      5-min Rain = 0
KWE2 091918Z 00004KT 05/00 A3036 RMK A01 T00530004  RH  071%=      5-min Rain = 0
KWE2 091919Z 34004KT 05/00 A3036 RMK A01 T00520001  RH  069%=      5-min Rain = 0
KWE2 091920Z 34006KT 05/00 A3036 RMK A01 T00510002  RH  071%=      5-min Rain = 0
KWE2 091921Z 33005KT 05/00 A3036 RMK A01 T00510004  RH  071%=      5-min Rain = 0
KWE2 091922Z 33004KT 05/00 A3036 RMK A01 T005100-0  RH  069%=      5-min Rain = 0
KWE2 091923Z 33004KT 05/00 A3036 RMK A01 T00510001  RH  070%=      5-min Rain = 0
KWE2 091924Z 33004KT 05/M01 A3036 RMK A01 T00511010  RH  065%=      5-min Rain = 0
KWE2 091925Z 34004KT 05/M01 A3036 RMK A01 T00501006  RH  067%=      5-min Rain = 0
KWE2 091926Z 35005KT 05/M00 A3036 RMK A01 T00511001  RH  069%=      5-min Rain = 0
KWE2 091927Z 34004KT 05/M00 A3036 RMK A01 T00521003  RH  068%=      5-min Rain = 0
KWE2 091928Z 34006KT 05/00 A3036 RMK A01 T00510003  RH  071%=      5-min Rain = 0
KWE2 091929Z 34005KT 05/00 A3036 RMK A01 T00520000  RH  069%=      5-min Rain = 0
KWE2 091930Z 34004KT 05/M00 A3036 RMK A01 T00511003  RH  068%=      5-min Rain = 0
KWE2 091931Z 35002KT 05/M01 A3036 RMK A01 T00511007  RH  066%=      5-min Rain = 0
KWE2 091932Z 33003KT 05/M00 A3036 RMK A01 T00511001  RH  069%=      5-min Rain = 0
KWE2 091933Z 34004KT 05/00 A3036 RMK A01 T00530003  RH  070%=      5-min Rain = 0
KWE2 091934Z 34004KT 06/01 A3036 RMK A01 T00550009  RH  072%=      5-min Rain = 0
KWE2 091935Z 33005KT 06/01 A3036 RMK A01 T00560006  RH  070%=      5-min Rain = 0
KWE2 091936Z 32005KT 06/01 A3036 RMK A01 T00560006  RH  070%=      5-min Rain = 0
KWE2 091937Z 33005KT 06/00 A3036 RMK A01 T00560001  RH  068%=      5-min Rain = 0
KWE2 091938Z 32004KT 05/M00 A3036 RMK A01 T00541001  RH  067%=      5-min Rain = 0
KWE2 091939Z 31003KT 05/M00 A3035 RMK A01 T00541002  RH  067%=      5-min Rain = 0
KWE2 091940Z 33005KT 05/M00 A3035 RMK A01 T00541001  RH  068%=      5-min Rain = 0
KWE2 091941Z 33004KT 05/M00 A3035 RMK A01 T00531001  RH  068%=      5-min Rain = 0
KWE2 091942Z 34003KT 05/M00 A3035 RMK A01 T00531003  RH  067%=      5-min Rain = 0
KWE2 091943Z 31004KT 05/M00 A3035 RMK A01 T00521003  RH  067%=      5-min Rain = 0
KWE2 091944Z 34005KT 05/00 A3035 RMK A01 T00530002  RH  070%=      5-min Rain = 0
KWE2 091945Z 36004KT 06/01 A3035 RMK A01 T00550007  RH  071%=      5-min Rain = 0
KWE2 091946Z 36004KT 06/00 A3035 RMK A01 T00550002  RH  068%=      5-min Rain = 0
KWE2 091947Z 32005KT 06/00 A3035 RMK A01 T00550002  RH  068%=      5-min Rain = 0
KWE2 091948Z 34003KT 06/M00 A3035 RMK A01 T00551002  RH  067%=      5-min Rain = 0
KWE2 091949Z 33003KT 05/M00 A3035 RMK A01 T00541004  RH  066%=      5-min Rain = 0
KWE2 091950Z 34004KT 05/00 A3035 RMK A01 T00540001  RH  068%=      5-min Rain = 0
KWE2 091951Z 34004KT 06/01 A3035 RMK A01 T00560005  RH  070%=      5-min Rain = 0
KWE2 091952Z 00004KT 06/00 A3035 RMK A01 T00570003  RH  068%=      5-min Rain = 0
KWE2 091953Z 35004KT 06/M00 A3035 RMK A01 T00561002  RH  066%=      5-min Rain = 0
KWE2 091954Z 34003KT 06/00 A3035 RMK A01 T00560002  RH  068%=      5-min Rain = 0
KWE2 091955Z 33003KT 06/00 A3035 RMK A01 T005600-0  RH  067%=      5-min Rain = 0
KWE2 091956Z 31005KT 06/00 A3035 RMK A01 T00580003  RH  068%=      5-min Rain = 0
KWE2 091957Z 30004KT 06/00 A3035 RMK A01 T00590002  RH  067%=      5-min Rain = 0
KWE2 091958Z 29004KT 06/M01 A3035 RMK A01 T00591005  RH  063%=      5-min Rain = 0
KWE2 091959Z 29005KT 06/M00 A3035 RMK A01 T00581001  RH  066%=      5-min Rain = 0
KWE2 092000Z 28004KT 06/00 A3035 RMK A01 T00580003  RH  068%=      5-min Rain = 0
KWE2 092001Z 29005KT 06/00 A3035 RMK A01 T00590003  RH  068%=      5-min Rain = 0
KWE2 092002Z 30004KT 06/M00 A3035 RMK A01 T00581002  RH  065%=      5-min Rain = 0
KWE2 092003Z 30004KT 06/M00 A3035 RMK A01 T00571002  RH  065%=      5-min Rain = 0
KWE2 092004Z 31005KT 06/00 A3035 RMK A01 T00580003  RH  068%=      5-min Rain = 0
KWE2 092005Z 35006KT 06/00 A3035 RMK A01 T00580002  RH  067%=      5-min Rain = 0
KWE2 092006Z 36005KT 06/M00 A3035 RMK A01 T00581002  RH  065%=      5-min Rain = 0
KWE2 092007Z 02004KT 06/M00 A3035 RMK A01 T00581003  RH  065%=      5-min Rain = 0
KWE2 092008Z 34005KT 06/M01 A3035 RMK A01 T00581005  RH  064%=      5-min Rain = 0
KWE2 092009Z 34005KT 06/00 A3035 RMK A01 T00590002  RH  067%=      5-min Rain = 0
KWE2 092010Z 01003KT 06/M00 A3035 RMK A01 T00581001  RH  066%=      5-min Rain = 0
KWE2 092011Z 34003KT 06/00 A3035 RMK A01 T00580003  RH  068%=      5-min Rain = 0
KWE2 092012Z 36004KT 06/01 A3035 RMK A01 T00610008  RH  069%=      5-min Rain = 0
KWE2 092013Z 35004KT 06/00 A3035 RMK A01 T00620002  RH  065%=      5-min Rain = 0
KWE2 092014Z 33006KT 06/00 A3035 RMK A01 T00620004  RH  066%=      5-min Rain = 0
KWE2 092015Z 33005KT 06/01 A3034 RMK A01 T00620006  RH  067%=      5-min Rain = 0
KWE2 092016Z 33003KT 06/M00 A3034 RMK A01 T00611002  RH  064%=      5-min Rain = 0
KWE2 092017Z 30003KT 06/M01 A3034 RMK A01 T00591006  RH  063%=      5-min Rain = 0
KWE2 092018Z 31005KT 06/M00 A3034 RMK A01 T00571003  RH  065%=      5-min Rain = 0
KWE2 092019Z 33005KT 06/00 A3034 RMK A01 T005800-0  RH  066%=      5-min Rain = 0
KWE2 092020Z 36005KT 06/00 A3034 RMK A01 T00590004  RH  068%=      5-min Rain = 0
KWE2 092021Z 34005G10KT 06/00 A3034 RMK A01 T00600001  RH  066%=      5-min Rain = 0
KWE2 092022Z 33005KT 06/00 A3034 RMK A01 T00610003  RH  066%=      5-min Rain = 0
KWE2 092023Z 33003KT 06/M00 A3034 RMK A01 T00611002  RH  064%=      5-min Rain = 0
KWE2 092024Z 34005KT 06/M00 A3034 RMK A01 T00601004  RH  063%=      5-min Rain = 0
KWE2 092025Z 34006KT 06/M00 A3034 RMK A01 T00601002  RH  065%=      5-min Rain = 0
KWE2 092026Z 32004KT 06/M00 A3034 RMK A01 T00601004  RH  064%=      5-min Rain = 0
KWE2 092027Z 33003KT 06/M00 A3034 RMK A01 T00591004  RH  064%=      5-min Rain = 0
KWE2 092028Z 34003KT 06/00 A3034 RMK A01 T005900-0  RH  066%=      5-min Rain = 0
KWE2 092029Z 34003KT 06/00 A3034 RMK A01 T00610001  RH  066%=      5-min Rain = 0
KWE2 092030Z 33003KT 06/00 A3034 RMK A01 T00620003  RH  066%=      5-min Rain = 0
KWE2 092031Z 31004KT 06/01 A3034 RMK A01 T00640007  RH  067%=      5-min Rain = 0
KWE2 092032Z 31004KT 06/00 A3034 RMK A01 T00640003  RH  065%=      5-min Rain = 0
KWE2 092033Z 31004KT 06/M00 A3034 RMK A01 T00631002  RH  063%=      5-min Rain = 0
KWE2 092034Z 32006KT 06/00 A3034 RMK A01 T00620004  RH  066%=      5-min Rain = 0
KWE2 092035Z 30007KT 06/00 A3034 RMK A01 T00620001  RH  065%=      5-min Rain = 0
KWE2 092036Z 30006KT 06/00 A3034 RMK A01 T00610001  RH  066%=      5-min Rain = 0
KWE2 092037Z 31004KT 06/00 A3034 RMK A01 T00600004  RH  067%=      5-min Rain = 0
KWE2 092038Z 32005KT 06/01 A3034 RMK A01 T00610005  RH  067%=      5-min Rain = 0
KWE2 092039Z 31005KT 06/01 A3034 RMK A01 T00620005  RH  067%=      5-min Rain = 0
KWE2 092040Z 32005KT 06/00 A3034 RMK A01 T00620004  RH  066%=      5-min Rain = 0
KWE2 092041Z 33008KT 06/01 A3034 RMK A01 T00620006  RH  067%=      5-min Rain = 0
KWE2 092042Z 33006KT 06/01 A3034 RMK A01 T00630007  RH  067%=      5-min Rain = 0
KWE2 092043Z 33006KT 06/00 A3034 RMK A01 T00610001  RH  065%=      5-min Rain = 0
KWE2 092044Z 32005KT 06/00 A3034 RMK A01 T00600002  RH  066%=      5-min Rain = 0
KWE2 092045Z 33004KT 06/00 A3034 RMK A01 T00600001  RH  066%=      5-min Rain = 0
KWE2 092046Z 31005KT 06/M00 A3034 RMK A01 T00591001  RH  065%=      5-min Rain = 0
KWE2 092047Z 32005KT 06/01 A3035 RMK A01 T00600005  RH  068%=      5-min Rain = 0
KWE2 092048Z 36005KT 06/01 A3035 RMK A01 T00620007  RH  068%=      5-min Rain = 0
KWE2 092049Z 35004KT 06/01 A3035 RMK A01 T00630007  RH  067%=      5-min Rain = 0
KWE2 092050Z 33007KT 06/01 A3035 RMK A01 T00640009  RH  068%=      5-min Rain = 0
KWE2 092051Z 33006KT 06/00 A3035 RMK A01 T00640004  RH  066%=      5-min Rain = 0
KWE2 092052Z 34004KT 06/01 A3035 RMK A01 T00630008  RH  067%=      5-min Rain = 0
KWE2 092053Z 30003KT 06/00 A3035 RMK A01 T00630003  RH  066%=      5-min Rain = 0
KWE2 092054Z 31004KT 06/00 A3035 RMK A01 T00630003  RH  065%=      5-min Rain = 0
KWE2 092055Z 32006KT 06/00 A3035 RMK A01 T00630003  RH  065%=      5-min Rain = 0
KWE2 092056Z 34006KT 06/00 A3035 RMK A01 T00620002  RH  065%=      5-min Rain = 0
KWE2 092057Z 34005KT 06/00 A3035 RMK A01 T00610001  RH  065%=      5-min Rain = 0
KWE2 092058Z 32006KT 06/00 A3035 RMK A01 T006100-0  RH  065%=      5-min Rain = 0
KWE2 092059Z 32006KT 06/M00 A3034 RMK A01 T00611001  RH  065%=      5-min Rain = 0
KWE2 092100Z 32006KT 06/00 A3035 RMK A01 T00620003  RH  066%=      5-min Rain = 0
KWE2 092101Z 30006KT 06/00 A3035 RMK A01 T00620002  RH  065%=      5-min Rain = 0
KWE2 092102Z 32006KT 06/M00 A3035 RMK A01 T00621003  RH  063%=      5-min Rain = 0
KWE2 092103Z 33005KT 06/00 A3035 RMK A01 T00630003  RH  066%=      5-min Rain = 0
KWE2 092104Z 33007KT 06/00 A3035 RMK A01 T00630002  RH  065%=      5-min Rain = 0
KWE2 092105Z 32005KT 06/00 A3035 RMK A01 T00620004  RH  066%=      5-min Rain = 0
KWE2 092106Z 31006KT 06/00 A3034 RMK A01 T00620004  RH  066%=      5-min Rain = 0
KWE2 092107Z 33007KT 06/01 A3034 RMK A01 T00620005  RH  067%=      5-min Rain = 0
KWE2 092108Z 34007KT 06/00 A3034 RMK A01 T00620004  RH  066%=      5-min Rain = 0
KWE2 092109Z 34005KT 06/M00 A3034 RMK A01 T00621002  RH  064%=      5-min Rain = 0
KWE2 092110Z 33005KT 06/M00 A3034 RMK A01 T00611001  RH  065%=      5-min Rain = 0
KWE2 092111Z 31005KT 06/00 A3034 RMK A01 T00600002  RH  066%=      5-min Rain = 0
KWE2 092112Z 31006KT 06/00 A3034 RMK A01 T00600001  RH  066%=      5-min Rain = 0
KWE2 092113Z 32006KT 06/00 A3034 RMK A01 T00600002  RH  066%=      5-min Rain = 0
KWE2 092114Z 32006KT 06/M00 A3034 RMK A01 T00601001  RH  064%=      5-min Rain = 0
KWE2 092115Z 33004KT 06/M01 A3034 RMK A01 T00591007  RH  062%=      5-min Rain = 0
KWE2 092116Z 36005KT 06/M00 A3034 RMK A01 T00591003  RH  064%=      5-min Rain = 0
KWE2 092117Z 00005KT 06/00 A3034 RMK A01 T005900-0  RH  065%=      5-min Rain = 0
KWE2 092118Z 33004KT 06/00 A3034 RMK A01 T00600002  RH  066%=      5-min Rain = 0
KWE2 092119Z 33007KT 06/01 A3034 RMK A01 T00610005  RH  067%=      5-min Rain = 0
KWE2 092120Z 35006KT 06/01 A3034 RMK A01 T00620008  RH  068%=      5-min Rain = 0
KWE2 092121Z 36007KT 06/00 A3034 RMK A01 T00620002  RH  065%=      5-min Rain = 0
KWE2 092122Z 00006KT 06/00 A3034 RMK A01 T00620000  RH  065%=      5-min Rain = 0
KWE2 092123Z 00006KT 06/M00 A3034 RMK A01 T00621003  RH  063%=      5-min Rain = 0
KWE2 092124Z 01004KT 06/M01 A3034 RMK A01 T00611006  RH  062%=      5-min Rain = 0
KWE2 092125Z 35007KT 06/00 A3034 RMK A01 T00620001  RH  065%=      5-min Rain = 0
KWE2 092126Z 35006KT 06/00 A3034 RMK A01 T00630001  RH  065%=      5-min Rain = 0
KWE2 092127Z 33005KT 06/00 A3034 RMK A01 T00620001  RH  065%=      5-min Rain = 0
KWE2 092128Z 32006KT 06/00 A3034 RMK A01 T00620001  RH  065%=      5-min Rain = 0
KWE2 092129Z 34006KT 06/00 A3034 RMK A01 T00620004  RH  066%=      5-min Rain = 0
KWE2 092130Z 00005KT 06/00 A3034 RMK A01 T00620003  RH  066%=      5-min Rain = 0
KWE2 092131Z 02006KT 06/M00 A3034 RMK A01 T00631001  RH  064%=      5-min Rain = 0
KWE2 092132Z 35004KT 06/M00 A3034 RMK A01 T00631002  RH  063%=      5-min Rain = 0
KWE2 092133Z 34003KT 06/M00 A3034 RMK A01 T00631001  RH  063%=      5-min Rain = 0
KWE2 092134Z 34008KT 06/00 A3034 RMK A01 T00630001  RH  064%=      5-min Rain = 0
KWE2 092135Z 34007KT 06/00 A3034 RMK A01 T00630001  RH  064%=      5-min Rain = 0
KWE2 092136Z 35006KT 06/M00 A3034 RMK A01 T00631003  RH  063%=      5-min Rain = 0
KWE2 092137Z 34006KT 06/M00 A3034 RMK A01 T00621001  RH  064%=      5-min Rain = 0
KWE2 092138Z 34006KT 06/00 A3034 RMK A01 T00620001  RH  065%=      5-min Rain = 0
KWE2 092139Z 35006KT 06/M00 A3034 RMK A01 T00621004  RH  063%=      5-min Rain = 0
KWE2 092140Z 35005KT 06/M01 A3034 RMK A01 T00611006  RH  062%=      5-min Rain = 0
KWE2 092141Z 35004KT 06/M01 A3034 RMK A01 T00601009  RH  061%=      5-min Rain = 0
KWE2 092142Z 35006KT 06/M01 A3034 RMK A01 T00601009  RH  061%=      5-min Rain = 0
KWE2 092143Z 35005KT 06/M01 A3034 RMK A01 T00601010  RH  061%=      5-min Rain = 0
KWE2 092144Z 35005KT 06/M01 A3034 RMK A01 T00601009  RH  061%=      5-min Rain = 0
KWE2 092145Z 34004KT 06/M01 A3034 RMK A01 T00601010  RH  061%=      5-min Rain = 0
KWE2 092146Z 34004KT 06/M01 A3034 RMK A01 T00601006  RH  063%=      5-min Rain = 0
KWE2 092147Z 34003KT 06/M00 A3034 RMK A01 T00621002  RH  064%=      5-min Rain = 0
KWE2 092148Z 33006KT 06/00 A3034 RMK A01 T00630003  RH  066%=      5-min Rain = 0
KWE2 092149Z 34006KT 06/00 A3034 RMK A01 T00630002  RH  065%=      5-min Rain = 0
KWE2 092150Z 35005KT 06/M01 A3034 RMK A01 T00631008  RH  061%=      5-min Rain = 0
KWE2 092151Z 34007KT 06/M01 A3034 RMK A01 T00611007  RH  062%=      5-min Rain = 0
KWE2 092152Z 35006KT 06/M01 A3034 RMK A01 T00611005  RH  062%=      5-min Rain = 0
KWE2 092153Z 36005KT 06/M01 A3034 RMK A01 T00611008  RH  061%=      5-min Rain = 0
KWE2 092154Z 33006KT 06/M01 A3034 RMK A01 T00611006  RH  062%=      5-min Rain = 0
KWE2 092155Z 33007KT 06/M01 A3034 RMK A01 T00611010  RH  060%=      5-min Rain = 0
KWE2 092156Z 34007KT 06/M01 A3034 RMK A01 T00611006  RH  062%=      5-min Rain = 0
KWE2 092157Z 33006KT 06/M00 A3034 RMK A01 T00611004  RH  063%=      5-min Rain = 0
KWE2 092158Z 34004KT 06/M01 A3034 RMK A01 T00611005  RH  063%=      5-min Rain = 0
KWE2 092159Z 33005KT 06/M01 A3034 RMK A01 T00611007  RH  062%=      5-min Rain = 0
KWE2 092200Z 32006KT 06/M00 A3034 RMK A01 T00611003  RH  064%=      5-min Rain = 0
KWE2 092201Z 33005KT 06/M01 A3034 RMK A01 T00611007  RH  062%=      5-min Rain = 0
KWE2 092202Z 33007KT 06/M01 A3034 RMK A01 T00611008  RH  061%=      5-min Rain = 0
KWE2 092203Z 33007KT 06/M01 A3034 RMK A01 T00611006  RH  062%=      5-min Rain = 0
KWE2 092204Z 33006KT 06/M01 A3034 RMK A01 T00611010  RH  060%=      5-min Rain = 0
KWE2 092205Z 33005KT 06/M01 A3034 RMK A01 T00611013  RH  059%=      5-min Rain = 0
KWE2 092206Z 32005KT 06/M01 A3034 RMK A01 T00601012  RH  060%=      5-min Rain = 0
KWE2 092207Z 32006KT 06/M00 A3034 RMK A01 T00601004  RH  063%=      5-min Rain = 0
KWE2 092208Z 33006KT 06/M01 A3034 RMK A01 T00611005  RH  063%=      5-min Rain = 0
KWE2 092209Z 33005KT 06/M01 A3034 RMK A01 T00611005  RH  062%=      5-min Rain = 0
KWE2 092210Z 32006KT 06/M01 A3034 RMK A01 T00611007  RH  062%=      5-min Rain = 0
KWE2 092211Z 32007KT 06/M01 A3034 RMK A01 T00611005  RH  063%=      5-min Rain = 0
KWE2 092212Z 32007KT 06/M01 A3034 RMK A01 T00611005  RH  063%=      5-min Rain = 0
KWE2 092213Z 33006KT 06/M01 A3034 RMK A01 T00611008  RH  061%=      5-min Rain = 0
KWE2 092214Z 31006KT 06/M01 A3034 RMK A01 T00601005  RH  063%=      5-min Rain = 0
KWE2 092215Z 31007KT 06/M01 A3034 RMK A01 T00601005  RH  063%=      5-min Rain = 0
KWE2 092216Z 32006KT 06/M01 A3034 RMK A01 T00611008  RH  062%=      5-min Rain = 0
KWE2 092217Z 32005KT 06/M01 A3034 RMK A01 T00601011  RH  060%=      5-min Rain = 0
KWE2 092218Z 33005KT 06/M01 A3034 RMK A01 T00601012  RH  060%=      5-min Rain = 0
KWE2 092219Z 33004KT 06/M01 A3034 RMK A01 T00601010  RH  061%=      5-min Rain = 0
KWE2 092220Z 32004KT 06/M01 A3034 RMK A01 T00601006  RH  063%=      5-min Rain = 0
KWE2 092221Z 33005KT 06/M00 A3034 RMK A01 T00601004  RH  064%=      5-min Rain = 0
KWE2 092222Z 33007KT 06/M01 A3034 RMK A01 T00611005  RH  063%=      5-min Rain = 0
KWE2 092223Z 33006KT 06/M00 A3035 RMK A01 T00611003  RH  064%=      5-min Rain = 0
KWE2 092224Z 32005KT 06/M01 A3035 RMK A01 T00601006  RH  062%=      5-min Rain = 0
KWE2 092225Z 33005KT 06/M01 A3035 RMK A01 T00601007  RH  062%=      5-min Rain = 0
KWE2 092226Z 32006KT 06/M01 A3035 RMK A01 T00601009  RH  061%=      5-min Rain = 0
KWE2 092227Z 33006KT 06/M01 A3035 RMK A01 T00601007  RH  062%=      5-min Rain = 0
KWE2 092228Z 34004KT 06/M01 A3035 RMK A01 T00601012  RH  060%=      5-min Rain = 0
KWE2 092229Z 32005KT 06/M01 A3034 RMK A01 T00601011  RH  060%=      5-min Rain = 0
KWE2 092230Z 32004KT 06/M01 A3034 RMK A01 T00601010  RH  061%=      5-min Rain = 0
KWE2 092231Z 33006KT 06/M01 A3034 RMK A01 T00601010  RH  061%=      5-min Rain = 0
KWE2 092232Z 33005KT 06/M01 A3034 RMK A01 T00601008  RH  062%=      5-min Rain = 0
KWE2 092233Z 33006KT 06/M01 A3034 RMK A01 T00601009  RH  061%=      5-min Rain = 0
KWE2 092234Z 33006KT 06/M01 A3034 RMK A01 T00591008  RH  062%=      5-min Rain = 0
KWE2 092235Z 34006KT 06/M01 A3035 RMK A01 T00591008  RH  062%=      5-min Rain = 0
KWE2 092236Z 33006KT 06/M01 A3035 RMK A01 T00591008  RH  062%=      5-min Rain = 0
KWE2 092237Z 34004KT 06/M01 A3035 RMK A01 T00581011  RH  061%=      5-min Rain = 0
KWE2 092238Z 33004KT 06/M01 A3035 RMK A01 T00581009  RH  062%=      5-min Rain = 0
KWE2 092239Z 33005KT 06/M01 A3035 RMK A01 T00581006  RH  064%=      5-min Rain = 0
KWE2 092240Z 34006KT 06/M01 A3035 RMK A01 T00581006  RH  063%=      5-min Rain = 0
KWE2 092241Z 34007KT 06/M01 A3035 RMK A01 T00581006  RH  064%=      5-min Rain = 0
KWE2 092242Z 34006KT 06/M01 A3035 RMK A01 T00581006  RH  063%=      5-min Rain = 0
KWE2 092243Z 35005KT 06/M01 A3035 RMK A01 T00581006  RH  063%=      5-min Rain = 0
KWE2 092244Z 35006KT 06/M01 A3035 RMK A01 T00581007  RH  063%=      5-min Rain = 0
KWE2 092245Z 35005KT 06/M01 A3035 RMK A01 T00581010  RH  062%=      5-min Rain = 0
KWE2 092246Z 34006KT 06/M01 A3035 RMK A01 T00581005  RH  064%=      5-min Rain = 0
KWE2 092247Z 35006KT 06/M01 A3035 RMK A01 T00581007  RH  063%=      5-min Rain = 0
KWE2 092248Z 35007KT 06/M01 A3035 RMK A01 T00581007  RH  063%=      5-min Rain = 0
KWE2 092249Z 36006KT 06/M01 A3035 RMK A01 T00581006  RH  064%=      5-min Rain = 0
KWE2 092250Z 35006KT 06/M01 A3035 RMK A01 T00581005  RH  064%=      5-min Rain = 0
KWE2 092251Z 36007KT 06/M01 A3035 RMK A01 T00571006  RH  064%=      5-min Rain = 0
KWE2 092252Z 35007KT 06/M00 A3035 RMK A01 T00571004  RH  065%=      5-min Rain = 0
KWE2 092253Z 35007KT 06/M01 A3035 RMK A01 T00571005  RH  064%=      5-min Rain = 0
KWE2 092254Z 34008KT 06/M01 A3035 RMK A01 T00571005  RH  065%=      5-min Rain = 0
KWE2 092255Z 01007KT 06/M00 A3035 RMK A01 T00561004  RH  065%=      5-min Rain = 0
KWE2 092256Z 02007KT 06/M00 A3035 RMK A01 T00561004  RH  065%=      5-min Rain = 0
KWE2 092257Z 02006KT 06/M01 A3035 RMK A01 T00551005  RH  065%=      5-min Rain = 0
KWE2 092258Z 02007KT 06/M00 A3035 RMK A01 T00551002  RH  067%=      5-min Rain = 0
KWE2 092259Z 01008KT 05/M00 A3035 RMK A01 T00541003  RH  066%=      5-min Rain = 0
KWE2 092300Z 01007KT 05/M01 A3035 RMK A01 T00541005  RH  065%=      5-min Rain = 0
KWE2 092301Z 01007KT 06/M00 A3035 RMK A01 T00551003  RH  066%=      5-min Rain = 0
KWE2 092302Z 00006KT 05/M00 A3035 RMK A01 T00541001  RH  067%=      5-min Rain = 0
KWE2 092303Z 00007KT 05/M00 A3035 RMK A01 T00541003  RH  067%=      5-min Rain = 0
KWE2 092304Z 01007KT 05/M00 A3035 RMK A01 T00541004  RH  066%=      5-min Rain = 0
KWE2 092305Z 01007KT 05/M00 A3035 RMK A01 T00541004  RH  066%=      5-min Rain = 0
KWE2 092306Z 01006KT 05/M00 A3035 RMK A01 T00531003  RH  067%=      5-min Rain = 0
KWE2 092307Z 01007KT 05/00 A3035 RMK A01 T00530001  RH  069%=      5-min Rain = 0
KWE2 092308Z 00007KT 05/M00 A3035 RMK A01 T00531001  RH  068%=      5-min Rain = 0
KWE2 092309Z 01007KT 05/M01 A3035 RMK A01 T00521005  RH  067%=      5-min Rain = 0
KWE2 092310Z 01007KT 05/M01 A3035 RMK A01 T00521005  RH  067%=      5-min Rain = 0
KWE2 092311Z 01007KT 05/M01 A3035 RMK A01 T00511005  RH  067%=      5-min Rain = 0
KWE2 092312Z 01006KT 05/M00 A3035 RMK A01 T00511003  RH  068%=      5-min Rain = 0
KWE2 092313Z 01006KT 05/M00 A3035 RMK A01 T00501001  RH  070%=      5-min Rain = 0
KWE2 092314Z 01007KT 05/M00 A3035 RMK A01 T00491002  RH  069%=      5-min Rain = 0
KWE2 092315Z 01007KT 05/M00 A3035 RMK A01 T00491002  RH  069%=      5-min Rain = 0
KWE2 092316Z 01007KT 05/M00 A3035 RMK A01 T00491001  RH  070%=      5-min Rain = 0
KWE2 092317Z 00006KT 05/M00 A3035 RMK A01 T00481001  RH  071%=      5-min Rain = 0
KWE2 092318Z 00006KT 05/M00 A3035 RMK A01 T00471001  RH  071%=      5-min Rain = 0
KWE2 092319Z 00007KT 05/M00 A3035 RMK A01 T00471003  RH  070%=      5-min Rain = 0
KWE2 092320Z 36007KT 05/M00 A3035 RMK A01 T00471004  RH  070%=      5-min Rain = 0
KWE2 092321Z 35006KT 05/M00 A3035 RMK A01 T00471004  RH  069%=      5-min Rain = 0
KWE2 092322Z 36006KT 05/M00 A3035 RMK A01 T00471003  RH  070%=      5-min Rain = 0
KWE2 092323Z 36007KT 05/M00 A3035 RMK A01 T00471004  RH  070%=      5-min Rain = 0
KWE2 092324Z 00007KT 05/M01 A3035 RMK A01 T00461006  RH  069%=      5-min Rain = 0
KWE2 092325Z 00006KT 05/M01 A3035 RMK A01 T00461005  RH  069%=      5-min Rain = 0
KWE2 092326Z 35006KT 05/M00 A3035 RMK A01 T00461003  RH  070%=      5-min Rain = 0
KWE2 092327Z 36006KT 05/M01 A3035 RMK A01 T00451005  RH  070%=      5-min Rain = 0
KWE2 092328Z 36006KT 05/M01 A3035 RMK A01 T00451005  RH  070%=      5-min Rain = 0
KWE2 092329Z 00006KT 05/M01 A3035 RMK A01 T00451005  RH  070%=      5-min Rain = 0
KWE2 092330Z 00006KT 04/M01 A3035 RMK A01 T00441005  RH  071%=      5-min Rain = 0
KWE2 092331Z 00005KT 04/M00 A3035 RMK A01 T00431004  RH  071%=      5-min Rain = 0
KWE2 092332Z 00005KT 04/M00 A3035 RMK A01 T00421003  RH  072%=      5-min Rain = 0
KWE2 092333Z 00005KT 04/M00 A3035 RMK A01 T00411003  RH  073%=      5-min Rain = 0
KWE2 092334Z 00005KT 04/M00 A3035 RMK A01 T00411003  RH  073%=      5-min Rain = 0
KWE2 092335Z 00005KT 04/M00 A3035 RMK A01 T00401003  RH  074%=      5-min Rain = 0
KWE2 092336Z 00005KT 04/M00 A3035 RMK A01 T00391003  RH  074%=      5-min Rain = 0
KWE2 092337Z 00005KT 04/M00 A3035 RMK A01 T00381003  RH  074%=      5-min Rain = 0
KWE2 092338Z 00005KT 04/M00 A3035 RMK A01 T00381004  RH  074%=      5-min Rain = 0
KWE2 092339Z 00005KT 04/M00 A3035 RMK A01 T00381004  RH  074%=      5-min Rain = 0
KWE2 092340Z 00005KT 04/M00 A3035 RMK A01 T00371003  RH  075%=      5-min Rain = 0
KWE2 092341Z 00005KT 04/M00 A3035 RMK A01 T00361003  RH  075%=      5-min Rain = 0
KWE2 092342Z 00005KT 04/M00 A3035 RMK A01 T00361003  RH  076%=      5-min Rain = 0
KWE2 092343Z 00004KT 04/M00 A3035 RMK A01 T00361004  RH  076%=      5-min Rain = 0
KWE2 092344Z 00004KT 04/M00 A3035 RMK A01 T00351003  RH  076%=      5-min Rain = 0
KWE2 092345Z 00004KT 03/M00 A3035 RMK A01 T00341003  RH  076%=      5-min Rain = 0
KWE2 092346Z 36003KT 03/M00 A3035 RMK A01 T00341003  RH  076%=      5-min Rain = 0
KWE2 092347Z 36003KT 03/M00 A3035 RMK A01 T00341003  RH  077%=      5-min Rain = 0
KWE2 092348Z 36003KT 03/M00 A3035 RMK A01 T00341002  RH  078%=      5-min Rain = 0
KWE2 092349Z 36003KT 03/M00 A3035 RMK A01 T00331001  RH  078%=      5-min Rain = 0
KWE2 092350Z 36003KT 03/M00 A3035 RMK A01 T00321001  RH  079%=      5-min Rain = 0
KWE2 092351Z 36003KT 03/00 A3035 RMK A01 T003200-0  RH  079%=      5-min Rain = 0
KWE2 092352Z 00004KT 03/M00 A3035 RMK A01 T00311001  RH  080%=      5-min Rain = 0
KWE2 092353Z 00004KT 03/M00 A3035 RMK A01 T00301001  RH  080%=      5-min Rain = 0
KWE2 092354Z 00004KT 03/M00 A3035 RMK A01 T00291002  RH  080%=      5-min Rain = 0
KWE2 092355Z 00004KT 03/M00 A3035 RMK A01 T00291003  RH  079%=      5-min Rain = 0
KWE2 092356Z 00004KT 03/M00 A3035 RMK A01 T00281004  RH  079%=      5-min Rain = 0
KWE2 092357Z 00004KT 03/M01 A3035 RMK A01 T00271005  RH  080%=      5-min Rain = 0
KWE2 092358Z 00004KT 03/M01 A3035 RMK A01 T00271005  RH  080%=      5-min Rain = 0
KWE2 092359Z 00004KT 03/M01 A3035 RMK A01 T00261005  RH  080%=      5-min Rain = 0
KWE2 100000Z 00004KT 03/M01 A3035 RMK A01 T00251005  RH  080%=      5-min Rain = 0
KWE2 100001Z 00004KT 03/M00 A3035 RMK A01 T00251004  RH  081%=      5-min Rain = 0
KWE2 100002Z 00005KT 03/M00 A3036 RMK A01 T00251004  RH  081%=      5-min Rain = 0
KWE2 100003Z 00005KT 03/M00 A3036 RMK A01 T00251004  RH  081%=      5-min Rain = 0
KWE2 100004Z 00005KT 03/M00 A3036 RMK A01 T00251004  RH  081%=      5-min Rain = 0
KWE2 100005Z 01004KT 03/M01 A3036 RMK A01 T00251005  RH  081%=      5-min Rain = 0
KWE2 100006Z 01004KT 02/M01 A3036 RMK A01 T00241006  RH  081%=      5-min Rain = 0
KWE2 100007Z 01004KT 02/M01 A3036 RMK A01 T00241006  RH  080%=      5-min Rain = 0
KWE2 100008Z 01003KT 02/M01 A3036 RMK A01 T00241007  RH  080%=      5-min Rain = 0
KWE2 100009Z 01003KT 02/M01 A3036 RMK A01 T00241006  RH  080%=      5-min Rain = 0
KWE2 100010Z 01003KT 02/M01 A3036 RMK A01 T00241006  RH  081%=      5-min Rain = 0
KWE2 100011Z 01003KT 03/M01 A3036 RMK A01 T00251005  RH  081%=      5-min Rain = 0
KWE2 100012Z 01004KT 03/M01 A3036 RMK A01 T00261005  RH  080%=      5-min Rain = 0
KWE2 100013Z 01004KT 03/M01 A3036 RMK A01 T00261007  RH  079%=      5-min Rain = 0
KWE2 100014Z 01004KT 03/M01 A3036 RMK A01 T00261007  RH  078%=      5-min Rain = 0
KWE2 100015Z 01004KT 03/M01 A3036 RMK A01 T00271008  RH  078%=      5-min Rain = 0
KWE2 100016Z 02005KT 03/M01 A3036 RMK A01 T00281008  RH  077%=      5-min Rain = 0
KWE2 100017Z 01005KT 03/M01 A3036 RMK A01 T00281009  RH  077%=      5-min Rain = 0
KWE2 100018Z 01005KT 03/M01 A3036 RMK A01 T00281009  RH  077%=      5-min Rain = 0
KWE2 100019Z 01006KT 03/M01 A3036 RMK A01 T00261010  RH  077%=      5-min Rain = 0
KWE2 100020Z 01005KT 02/M01 A3036 RMK A01 T00241011  RH  078%=      5-min Rain = 0
KWE2 100021Z 01005KT 02/M01 A3036 RMK A01 T00221010  RH  079%=      5-min Rain = 0
KWE2 100022Z 01005KT 02/M01 A3036 RMK A01 T00211010  RH  080%=      5-min Rain = 0
KWE2 100023Z 01005KT 02/M01 A3036 RMK A01 T00201009  RH  081%=      5-min Rain = 0
KWE2 100024Z 02005KT 02/M01 A3036 RMK A01 T00201008  RH  082%=      5-min Rain = 0
KWE2 100025Z 01005KT 02/M01 A3036 RMK A01 T00201007  RH  082%=      5-min Rain = 0
KWE2 100026Z 02005KT 02/M01 A3036 RMK A01 T00191006  RH  083%=      5-min Rain = 0
KWE2 100027Z 02006KT 02/M01 A3036 RMK A01 T00191006  RH  083%=      5-min Rain = 0
KWE2 100028Z 02006KT 02/M01 A3036 RMK A01 T00191006  RH  083%=      5-min Rain = 0
KWE2 100029Z 02006KT 02/M01 A3036 RMK A01 T00191005  RH  084%=      5-min Rain = 0
KWE2 100030Z 02006KT 02/M01 A3036 RMK A01 T00191005  RH  084%=      5-min Rain = 0
KWE2 100031Z 02006KT 02/M01 A3036 RMK A01 T00181005  RH  084%=      5-min Rain = 0
KWE2 100032Z 02005KT 02/M01 A3036 RMK A01 T00181005  RH  085%=      5-min Rain = 0
KWE2 100033Z 02005KT 02/M01 A3036 RMK A01 T00171005  RH  085%=      5-min Rain = 0
KWE2 100034Z 02005KT 02/M01 A3036 RMK A01 T00171005  RH  085%=      5-min Rain = 0
KWE2 100035Z 02005KT 02/M01 A3036 RMK A01 T00171005  RH  085%=      5-min Rain = 0
KWE2 100036Z 02005KT 02/M01 A3036 RMK A01 T00171005  RH  086%=      5-min Rain = 0
KWE2 100037Z 02005KT 02/M01 A3036 RMK A01 T00171005  RH  086%=      5-min Rain = 0
KWE2 100038Z 02004KT 02/M01 A3036 RMK A01 T00161006  RH  085%=      5-min Rain = 0
KWE2 100039Z 02005KT 02/M01 A3036 RMK A01 T00171006  RH  085%=      5-min Rain = 0
KWE2 100040Z 02005KT 02/M01 A3036 RMK A01 T00171006  RH  085%=      5-min Rain = 0
KWE2 100041Z 02005KT 02/M01 A3036 RMK A01 T00171006  RH  085%=      5-min Rain = 0
KWE2 100042Z 02005KT 02/M01 A3036 RMK A01 T00171006  RH  085%=      5-min Rain = 0
KWE2 100043Z 02005KT 02/M01 A3036 RMK A01 T00171006  RH  085%=      5-min Rain = 0
KWE2 100044Z 02005KT 02/M01 A3036 RMK A01 T00171006  RH  085%=      5-min Rain = 0
KWE2 100045Z 02004KT 02/M01 A3036 RMK A01 T00171006  RH  085%=      5-min Rain = 0
KWE2 100046Z 02004KT 02/M01 A3036 RMK A01 T00161007  RH  085%=      5-min Rain = 0
KWE2 100047Z 02004KT 02/M01 A3036 RMK A01 T00161006  RH  085%=      5-min Rain = 0
KWE2 100048Z 02004KT 02/M01 A3036 RMK A01 T00161006  RH  085%=      5-min Rain = 0
KWE2 100049Z 02004KT 02/M01 A3036 RMK A01 T00151007  RH  085%=      5-min Rain = 0
KWE2 100050Z 03003KT 02/M01 A3036 RMK A01 T00161007  RH  085%=      5-min Rain = 0
KWE2 100051Z 03003KT 02/M01 A3036 RMK A01 T00151007  RH  085%=      5-min Rain = 0
KWE2 100052Z 03003KT 02/M01 A3037 RMK A01 T00151008  RH  085%=      5-min Rain = 0
KWE2 100053Z 03003KT 02/M01 A3037 RMK A01 T00151008  RH  085%=      5-min Rain = 0
KWE2 100054Z 03003KT 01/M01 A3037 RMK A01 T00141009  RH  085%=      5-min Rain = 0
KWE2 100055Z 03003KT 01/M01 A3037 RMK A01 T00141008  RH  085%=      5-min Rain = 0
KWE2 100056Z 03003KT 01/M01 A3037 RMK A01 T00141009  RH  085%=      5-min Rain = 0
KWE2 100057Z 03003KT 01/M01 A3037 RMK A01 T00141009  RH  085%=      5-min Rain = 0
KWE2 100058Z 02003KT 01/M01 A3037 RMK A01 T00141009  RH  085%=      5-min Rain = 0
KWE2 100059Z 02003KT 01/M01 A3037 RMK A01 T00141010  RH  084%=      5-min Rain = 0
KWE2 100100Z 02004KT 02/M01 A3037 RMK A01 T00151010  RH  084%=      5-min Rain = 0
KWE2 100101Z 02004KT 02/M01 A3037 RMK A01 T00161009  RH  083%=      5-min Rain = 0
KWE2 100102Z 02004KT 02/M01 A3037 RMK A01 T00171009  RH  083%=      5-min Rain = 0
KWE2 100103Z 02004KT 02/M01 A3037 RMK A01 T00171010  RH  082%=      5-min Rain = 0
KWE2 100104Z 02004KT 02/M01 A3037 RMK A01 T00171011  RH  082%=      5-min Rain = 0
KWE2 100105Z 03004KT 02/M01 A3037 RMK A01 T00161012  RH  082%=      5-min Rain = 0
KWE2 100106Z 03004KT 02/M01 A3037 RMK A01 T00151012  RH  082%=      5-min Rain = 0
KWE2 100107Z 03003KT 01/M01 A3037 RMK A01 T00141012  RH  083%=      5-min Rain = 0
KWE2 100108Z 03003KT 01/M01 A3037 RMK A01 T00131012  RH  084%=      5-min Rain = 0
KWE2 100109Z 03003KT 01/M01 A3037 RMK A01 T00131011  RH  084%=      5-min Rain = 0
KWE2 100110Z 04002KT 01/M01 A3037 RMK A01 T00131011  RH  084%=      5-min Rain = 0
KWE2 100111Z 03002KT 01/M01 A3037 RMK A01 T00131011  RH  084%=      5-min Rain = 0
KWE2 100112Z 03002KT 01/M01 A3037 RMK A01 T00121011  RH  084%=      5-min Rain = 0
KWE2 100113Z 02002KT 01/M01 A3037 RMK A01 T00121011  RH  085%=      5-min Rain = 0
KWE2 100114Z 03003KT 01/M01 A3037 RMK A01 T00121010  RH  085%=      5-min Rain = 0
KWE2 100115Z 03002KT 01/M01 A3037 RMK A01 T00121010  RH  085%=      5-min Rain = 0
KWE2 100116Z 02002KT 01/M01 A3037 RMK A01 T00121010  RH  085%=      5-min Rain = 0
KWE2 100117Z 02003KT 01/M01 A3037 RMK A01 T00131009  RH  085%=      5-min Rain = 0
KWE2 100118Z 02002KT 01/M01 A3037 RMK A01 T00131010  RH  085%=      5-min Rain = 0
KWE2 100119Z 02003KT 01/M01 A3037 RMK A01 T00141010  RH  085%=      5-min Rain = 0
KWE2 100120Z 02003KT 01/M01 A3037 RMK A01 T00131010  RH  085%=      5-min Rain = 0
KWE2 100121Z 01002KT 01/M01 A3037 RMK A01 T00141009  RH  085%=      5-min Rain = 0
KWE2 100122Z 01002KT 01/M01 A3037 RMK A01 T00131010  RH  085%=      5-min Rain = 0
KWE2 100123Z 01002KT 01/M01 A3037 RMK A01 T00131010  RH  085%=      5-min Rain = 0
KWE2 100124Z 00002KT 01/M01 A3037 RMK A01 T00121010  RH  085%=      5-min Rain = 0
KWE2 100125Z 00002KT 01/M01 A3037 RMK A01 T00121010  RH  085%=      5-min Rain = 0
KWE2 100126Z 00002KT 01/M01 A3037 RMK A01 T00121010  RH  086%=      5-min Rain = 0
KWE2 100127Z 00001KT 01/M01 A3037 RMK A01 T00121009  RH  086%=      5-min Rain = 0
KWE2 100128Z 00001KT 01/M01 A3037 RMK A01 T00121009  RH  086%=      5-min Rain = 0
KWE2 100129Z 36001KT 01/M01 A3037 RMK A01 T00111009  RH  086%=      5-min Rain = 0
KWE2 100130Z 36001KT 01/M01 A3037 RMK A01 T00111010  RH  086%=      5-min Rain = 0
KWE2 100131Z 35000KT 01/M01 A3037 RMK A01 T00111010  RH  086%=      5-min Rain = 0
KWE2 100132Z 35000KT 01/M01 A3037 RMK A01 T00121010  RH  086%=      5-min Rain = 0
KWE2 100133Z 35000KT 01/M01 A3037 RMK A01 T00121010  RH  086%=      5-min Rain = 0
KWE2 100134Z 00000KT 01/M01 A3037 RMK A01 T00121010  RH  085%=      5-min Rain = 0
KWE2 100135Z 00000KT 01/M01 A3037 RMK A01 T00121010  RH  085%=      5-min Rain = 0
KWE2 100136Z 35000KT 01/M01 A3037 RMK A01 T00121010  RH  085%=      5-min Rain = 0
KWE2 100137Z 35001KT 01/M01 A3037 RMK A01 T00131010  RH  085%=      5-min Rain = 0
KWE2 100138Z 34001KT 01/M01 A3037 RMK A01 T00131010  RH  085%=      5-min Rain = 0
KWE2 100139Z 34001KT 01/M01 A3037 RMK A01 T00131010  RH  085%=      5-min Rain = 0
KWE2 100140Z 34001KT 01/M01 A3037 RMK A01 T00141010  RH  084%=      5-min Rain = 0
KWE2 100141Z 32001KT 01/M01 A3037 RMK A01 T00141010  RH  084%=      5-min Rain = 0
KWE2 100142Z 29001KT 01/M01 A3037 RMK A01 T00141010  RH  084%=      5-min Rain = 0
KWE2 100143Z 30002KT 02/M01 A3037 RMK A01 T00151010  RH  083%=      5-min Rain = 0
KWE2 100144Z 30002KT 02/M01 A3037 RMK A01 T00151011  RH  083%=      5-min Rain = 0
KWE2 100145Z 29001KT 02/M01 A3037 RMK A01 T00151010  RH  084%=      5-min Rain = 0
KWE2 100146Z 29001KT 02/M01 A3037 RMK A01 T00151009  RH  084%=      5-min Rain = 0
KWE2 100147Z 29002KT 02/M01 A3037 RMK A01 T00161009  RH  084%=      5-min Rain = 0
KWE2 100148Z 29002KT 02/M01 A3037 RMK A01 T00161009  RH  084%=      5-min Rain = 0
KWE2 100149Z 30002KT 02/M01 A3037 RMK A01 T00161009  RH  083%=      5-min Rain = 0
KWE2 100150Z 29002KT 02/M01 A3037 RMK A01 T00161009  RH  083%=      5-min Rain = 0
KWE2 100151Z 29002KT 01/M01 A3037 RMK A01 T00141011  RH  083%=      5-min Rain = 0
KWE2 100152Z 30002KT 01/M01 A3037 RMK A01 T00121012  RH  084%=      5-min Rain = 0
KWE2 100153Z 30002KT 01/M01 A3037 RMK A01 T00091013  RH  085%=      5-min Rain = 0
KWE2 100154Z 31002KT 01/M01 A3037 RMK A01 T00061014  RH  086%=      5-min Rain = 0
KWE2 100155Z 30002KT 00/M02 A3037 RMK A01 T00041015  RH  087%=      5-min Rain = 0
KWE2 100156Z 31002KT 00/M02 A3037 RMK A01 T00021015  RH  089%=      5-min Rain = 0
KWE2 100157Z 31002KT 00/M01 A3037 RMK A01 T00021013  RH  090%=      5-min Rain = 0
KWE2 100158Z 32002KT 00/M01 A3037 RMK A01 T00011012  RH  091%=      5-min Rain = 0
KWE2 100159Z 32002KT 00/01 A3037 RMK A01 T00-00-13  RH  091%=      5-min Rain = 0
KWE2 100200Z 32002KT M00/M02 A3037 RMK A01 T10011015  RH  091%=      5-min Rain = 0
KWE2 100201Z 31001KT M00/M01 A3037 RMK A01 T10021014  RH  091%=      5-min Rain = 0
KWE2 100202Z 31001KT M00/M01 A3037 RMK A01 T10031014  RH  092%=      5-min Rain = 0
KWE2 100203Z 30001KT M00/M02 A3037 RMK A01 T10031015  RH  092%=      5-min Rain = 0
KWE2 100204Z 27001KT M00/M01 A3037 RMK A01 T10031014  RH  092%=      5-min Rain = 0
KWE2 100205Z 25002KT M00/M01 A3037 RMK A01 T10041014  RH  093%=      5-min Rain = 0
KWE2 100206Z 25002KT M00/M01 A3037 RMK A01 T10041013  RH  093%=      5-min Rain = 0
KWE2 100207Z 23002KT M00/M01 A3037 RMK A01 T10041013  RH  094%=      5-min Rain = 0
KWE2 100208Z 22003KT M00/M01 A3037 RMK A01 T10031013  RH  093%=      5-min Rain = 0
KWE2 100209Z 22003KT M00/M01 A3037 RMK A01 T10031013  RH  094%=      5-min Rain = 0
KWE2 100210Z 23002KT M00/M01 A3037 RMK A01 T10031012  RH  094%=      5-min Rain = 0
KWE2 100211Z 24002KT M00/M01 A3037 RMK A01 T10031012  RH  094%=      5-min Rain = 0
KWE2 100212Z 24003KT M00/M01 A3038 RMK A01 T10031012  RH  094%=      5-min Rain = 0
KWE2 100213Z 25002KT M00/M01 A3038 RMK A01 T10031012  RH  094%=      5-min Rain = 0
KWE2 100214Z 25002KT M00/M01 A3038 RMK A01 T10031011  RH  094%=      5-min Rain = 0
KWE2 100215Z 26002KT M00/M01 A3038 RMK A01 T10031011  RH  094%=      5-min Rain = 0
KWE2 100216Z 26002KT M00/M01 A3038 RMK A01 T10031011  RH  094%=      5-min Rain = 0
KWE2 100217Z 27002KT M00/M01 A3038 RMK A01 T10031011  RH  094%=      5-min Rain = 0
KWE2 100218Z 28002KT M00/M01 A3038 RMK A01 T10031012  RH  094%=      5-min Rain = 0
KWE2 100219Z 28002KT M00/M01 A3038 RMK A01 T10041012  RH  094%=      5-min Rain = 0
KWE2 100220Z 29002KT M00/M01 A3038 RMK A01 T10041013  RH  094%=      5-min Rain = 0
KWE2 100221Z 31002KT M00/M01 A3038 RMK A01 T10041012  RH  094%=      5-min Rain = 0
KWE2 100222Z 32002KT M01/M01 A3038 RMK A01 T10051012  RH  095%=      5-min Rain = 0
KWE2 100223Z 32002KT M00/M01 A3038 RMK A01 T10041011  RH  095%=      5-min Rain = 0
KWE2 100224Z 33002KT M00/M01 A3038 RMK A01 T10041011  RH  095%=      5-min Rain = 0
KWE2 100225Z 33002KT M00/M01 A3038 RMK A01 T10041011  RH  095%=      5-min Rain = 0
KWE2 100226Z 32002KT M00/M01 A3038 RMK A01 T10041011  RH  095%=      5-min Rain = 0
KWE2 100227Z 31002KT M00/M01 A3038 RMK A01 T10041011  RH  095%=      5-min Rain = 0
KWE2 100228Z 30002KT M00/M01 A3038 RMK A01 T10041011  RH  095%=      5-min Rain = 0
KWE2 100229Z 30003KT M00/M01 A3038 RMK A01 T10041010  RH  095%=      5-min Rain = 0
KWE2 100230Z 30003KT M01/M01 A3038 RMK A01 T10051012  RH  095%=      5-min Rain = 0
KWE2 100231Z 30003KT M01/M01 A3038 RMK A01 T10051011  RH  095%=      5-min Rain = 0
KWE2 100232Z 31003KT M00/M01 A3038 RMK A01 T10041009  RH  096%=      5-min Rain = 0
KWE2 100233Z 32003KT M00/M01 A3038 RMK A01 T10021008  RH  096%=      5-min Rain = 0
KWE2 100234Z 33003KT M00/M01 A3038 RMK A01 T10021008  RH  096%=      5-min Rain = 0
KWE2 100235Z 34003KT M00/M01 A3038 RMK A01 T10021009  RH  095%=      5-min Rain = 0
KWE2 100236Z 34003KT M00/M01 A3038 RMK A01 T10031010  RH  095%=      5-min Rain = 0
KWE2 100237Z 34003KT M00/M01 A3038 RMK A01 T10041012  RH  095%=      5-min Rain = 0
KWE2 100238Z 34003KT M01/M01 A3038 RMK A01 T10051013  RH  094%=      5-min Rain = 0
KWE2 100239Z 34003KT M01/M01 A3039 RMK A01 T10061014  RH  094%=      5-min Rain = 0
KWE2 100240Z 33004KT M01/M01 A3039 RMK A01 T10071014  RH  095%=      5-min Rain = 0
KWE2 100241Z 33004KT M01/M01 A3039 RMK A01 T10071014  RH  095%=      5-min Rain = 0
KWE2 100242Z 34004KT M01/M01 A3039 RMK A01 T10071014  RH  095%=      5-min Rain = 0
KWE2 100243Z 34005KT M01/M01 A3039 RMK A01 T10071014  RH  095%=      5-min Rain = 0
KWE2 100244Z 34005KT M01/M01 A3039 RMK A01 T10081014  RH  096%=      5-min Rain = 0
KWE2 100245Z 35004KT M01/M01 A3039 RMK A01 T10081014  RH  096%=      5-min Rain = 0
KWE2 100246Z 35004KT M01/M01 A3039 RMK A01 T10081014  RH  096%=      5-min Rain = 0
KWE2 100247Z 00004KT M01/M01 A3039 RMK A01 T10081014  RH  096%=      5-min Rain = 0
KWE2 100248Z 00004KT M01/M01 A3039 RMK A01 T10071013  RH  096%=      5-min Rain = 0
KWE2 100249Z 36003KT M01/M01 A3039 RMK A01 T10071013  RH  096%=      5-min Rain = 0
KWE2 100250Z 35003KT M01/M01 A3039 RMK A01 T10071013  RH  096%=      5-min Rain = 0
KWE2 100251Z 35003KT M01/M01 A3039 RMK A01 T10071014  RH  095%=      5-min Rain = 0
KWE2 100252Z 35003KT M01/M01 A3039 RMK A01 T10081014  RH  095%=      5-min Rain = 0
KWE2 100253Z 00003KT M01/M02 A3039 RMK A01 T10081015  RH  095%=      5-min Rain = 0
KWE2 100254Z 36003KT M01/M02 A3039 RMK A01 T10081015  RH  095%=      5-min Rain = 0
KWE2 100255Z 35004KT M01/M02 A3039 RMK A01 T10071015  RH  095%=      5-min Rain = 0
KWE2 100256Z 35004KT M01/M02 A3038 RMK A01 T10071015  RH  095%=      5-min Rain = 0
KWE2 100257Z 35004KT M01/M02 A3038 RMK A01 T10081016  RH  094%=      5-min Rain = 0
KWE2 100258Z 35004KT M01/M02 A3038 RMK A01 T10081016  RH  094%=      5-min Rain = 0
KWE2 100259Z 35004KT M01/M02 A3038 RMK A01 T10091017  RH  094%=      5-min Rain = 0
KWE2 100300Z 35004KT M01/M02 A3038 RMK A01 T10091017  RH  094%=      5-min Rain = 0
KWE2 100301Z 35004KT M01/M02 A3038 RMK A01 T10091017  RH  094%=      5-min Rain = 0
KWE2 100302Z 36004KT M01/M02 A3038 RMK A01 T10091017  RH  095%=      5-min Rain = 0
KWE2 100303Z 00004KT M01/M02 A3038 RMK A01 T10091017  RH  095%=      5-min Rain = 0
KWE2 100304Z 36004KT M01/M02 A3038 RMK A01 T10091016  RH  095%=      5-min Rain = 0
KWE2 100305Z 35004KT M01/M02 A3038 RMK A01 T10091016  RH  095%=      5-min Rain = 0
KWE2 100306Z 35004KT M01/M02 A3039 RMK A01 T10091016  RH  095%=      5-min Rain = 0
KWE2 100307Z 35004KT M01/M02 A3039 RMK A01 T10081016  RH  095%=      5-min Rain = 0
KWE2 100308Z 35004KT M01/M02 A3039 RMK A01 T10081016  RH  094%=      5-min Rain = 0
KWE2 100309Z 35004KT M01/M02 A3039 RMK A01 T10091017  RH  094%=      5-min Rain = 0
KWE2 100310Z 35005KT M01/M02 A3039 RMK A01 T10091017  RH  094%=      5-min Rain = 0
KWE2 100311Z 35005KT M01/M02 A3039 RMK A01 T10091018  RH  094%=      5-min Rain = 0
KWE2 100312Z 35005KT M01/M02 A3039 RMK A01 T10101018  RH  094%=      5-min Rain = 0
KWE2 100313Z 35004KT M01/M02 A3039 RMK A01 T10101018  RH  094%=      5-min Rain = 0
KWE2 100314Z 35005KT M01/M02 A3039 RMK A01 T10101018  RH  094%=      5-min Rain = 0
KWE2 100315Z 35004KT M01/M02 A3039 RMK A01 T10111019  RH  094%=      5-min Rain = 0
KWE2 100316Z 35004KT M01/M02 A3039 RMK A01 T10111019  RH  094%=      5-min Rain = 0
KWE2 100317Z 35004KT M01/M02 A3039 RMK A01 T10121020  RH  094%=      5-min Rain = 0
KWE2 100318Z 35004KT M01/M02 A3039 RMK A01 T10131020  RH  094%=      5-min Rain = 0
KWE2 100319Z 35004KT M01/M02 A3039 RMK A01 T10131021  RH  094%=      5-min Rain = 0
KWE2 100320Z 35004KT M01/M02 A3039 RMK A01 T10141021  RH  095%=      5-min Rain = 0
KWE2 100321Z 35004KT M01/M02 A3039 RMK A01 T10141021  RH  095%=      5-min Rain = 0
KWE2 100322Z 35004KT M01/M02 A3039 RMK A01 T10141021  RH  095%=      5-min Rain = 0
KWE2 100323Z 35004KT M01/M02 A3039 RMK A01 T10141021  RH  095%=      5-min Rain = 0
KWE2 100324Z 35004KT M01/M02 A3039 RMK A01 T10141021  RH  095%=      5-min Rain = 0
KWE2 100325Z 35005KT M01/M02 A3039 RMK A01 T10141021  RH  095%=      5-min Rain = 0
KWE2 100326Z 35005KT M01/M02 A3039 RMK A01 T10141021  RH  095%=      5-min Rain = 0
KWE2 100327Z 34005KT M02/M02 A3039 RMK A01 T10151022  RH  095%=      5-min Rain = 0
KWE2 100328Z 34005KT M02/M02 A3039 RMK A01 T10151022  RH  095%=      5-min Rain = 0
KWE2 100329Z 35005KT M02/M02 A3039 RMK A01 T10151022  RH  095%=      5-min Rain = 0
KWE2 100330Z 35005KT M02/M02 A3039 RMK A01 T10161023  RH  095%=      5-min Rain = 0
KWE2 100331Z 35005KT M02/M02 A3039 RMK A01 T10161023  RH  095%=      5-min Rain = 0
KWE2 100332Z 35005KT M02/M02 A3039 RMK A01 T10161023  RH  095%=      5-min Rain = 0
KWE2 100333Z 35005KT M02/M02 A3039 RMK A01 T10151022  RH  095%=      5-min Rain = 0
KWE2 100334Z 35005KT M01/M02 A3039 RMK A01 T10141021  RH  096%=      5-min Rain = 0
KWE2 100335Z 35005KT M01/M02 A3039 RMK A01 T10141020  RH  096%=      5-min Rain = 0
KWE2 100336Z 35005KT M01/M02 A3039 RMK A01 T10141020  RH  096%=      5-min Rain = 0
KWE2 100337Z 34005KT M01/M02 A3039 RMK A01 T10141020  RH  095%=      5-min Rain = 0
KWE2 100338Z 34005KT M01/M02 A3039 RMK A01 T10141020  RH  095%=      5-min Rain = 0
KWE2 100339Z 34005KT M01/M02 A3039 RMK A01 T10141020  RH  096%=      5-min Rain = 0
KWE2 100340Z 34005KT M01/M02 A3039 RMK A01 T10131019  RH  096%=      5-min Rain = 0
KWE2 100341Z 34005KT M01/M02 A3039 RMK A01 T10131019  RH  096%=      5-min Rain = 0
KWE2 100342Z 34005KT M01/M02 A3039 RMK A01 T10131019  RH  096%=      5-min Rain = 0
KWE2 100343Z 33005KT M01/M02 A3039 RMK A01 T10141020  RH  096%=      5-min Rain = 0
KWE2 100344Z 33005KT M01/M02 A3039 RMK A01 T10131019  RH  096%=      5-min Rain = 0
KWE2 100345Z 33005KT M01/M02 A3039 RMK A01 T10131019  RH  096%=      5-min Rain = 0
KWE2 100346Z 33005KT M01/M02 A3039 RMK A01 T10141020  RH  096%=      5-min Rain = 0
KWE2 100347Z 33005KT M01/M02 A3039 RMK A01 T10141020  RH  096%=      5-min Rain = 0
KWE2 100348Z 33005KT M01/M02 A3039 RMK A01 T10141020  RH  096%=      5-min Rain = 0
KWE2 100349Z 33004KT M01/M02 A3039 RMK A01 T10141020  RH  096%=      5-min Rain = 0
KWE2 100350Z 33004KT M01/M02 A3039 RMK A01 T10141020  RH  096%=      5-min Rain = 0
KWE2 100351Z 32004KT M02/M02 A3039 RMK A01 T10151021  RH  096%=      5-min Rain = 0
KWE2 100352Z 32004KT M02/M02 A3039 RMK A01 T10151021  RH  096%=      5-min Rain = 0
KWE2 100353Z 32004KT M02/M02 A3039 RMK A01 T10151020  RH  096%=      5-min Rain = 0
KWE2 100354Z 33004KT M02/M02 A3039 RMK A01 T10151020  RH  096%=      5-min Rain = 0
KWE2 100355Z 33004KT M01/M02 A3039 RMK A01 T10141019  RH  097%=      5-min Rain = 0
KWE2 100356Z 33004KT M01/M02 A3039 RMK A01 T10141018  RH  097%=      5-min Rain = 0
KWE2 100357Z 33004KT M01/M02 A3039 RMK A01 T10141018  RH  097%=      5-min Rain = 0
KWE2 100358Z 33004KT M01/M02 A3039 RMK A01 T10141018  RH  097%=      5-min Rain = 0
KWE2 100359Z 33004KT M01/M02 A3039 RMK A01 T10141018  RH  097%=      5-min Rain = 0
KWE2 100400Z 33004KT M01/M02 A3039 RMK A01 T10131018  RH  097%=      5-min Rain = 0
KWE2 100401Z 33004KT M01/M02 A3039 RMK A01 T10131018  RH  096%=      5-min Rain = 0
KWE2 100402Z 33005KT M01/M02 A3039 RMK A01 T10141019  RH  096%=      5-min Rain = 0
KWE2 100403Z 34004KT M02/M02 A3039 RMK A01 T10151020  RH  096%=      5-min Rain = 0
KWE2 100404Z 34005KT M02/M02 A3039 RMK A01 T10151020  RH  096%=      5-min Rain = 0
KWE2 100405Z 34005KT M02/M02 A3039 RMK A01 T10151020  RH  096%=      5-min Rain = 0
KWE2 100406Z 34005KT M02/M02 A3039 RMK A01 T10151020  RH  096%=      5-min Rain = 0
KWE2 100407Z 34005KT M02/M02 A3039 RMK A01 T10151020  RH  096%=      5-min Rain = 0
KWE2 100408Z 34005KT M02/M02 A3039 RMK A01 T10151020  RH  096%=      5-min Rain = 0
KWE2 100409Z 34005KT M02/M02 A3039 RMK A01 T10151020  RH  096%=      5-min Rain = 0
KWE2 100410Z 34005KT M02/M02 A3039 RMK A01 T10151020  RH  097%=      5-min Rain = 0
KWE2 100411Z 34005KT M02/M02 A3039 RMK A01 T10161020  RH  097%=      5-min Rain = 0
KWE2 100412Z 34005KT M02/M02 A304 RMK A01 T10161020  RH  097%=      5-min Rain = 0
KWE2 100413Z 34005KT M02/M02 A304 RMK A01 T10161020  RH  097%=      5-min Rain = 0
KWE2 100414Z 34005KT M02/M02 A304 RMK A01 T10161020  RH  097%=      5-min Rain = 0
KWE2 100415Z 34005KT M02/M02 A304 RMK A01 T10151019  RH  097%=      5-min Rain = 0
KWE2 100416Z 34005KT M02/M02 A304 RMK A01 T10151019  RH  097%=      5-min Rain = 0
KWE2 100417Z 34005KT M02/M02 A304 RMK A01 T10151019  RH  097%=      5-min Rain = 0
KWE2 100418Z 34005KT M02/M02 A304 RMK A01 T10151019  RH  097%=      5-min Rain = 0
KWE2 100419Z 34005KT M02/M02 A304 RMK A01 T10151019  RH  097%=      5-min Rain = 0
KWE2 100420Z 34005KT M02/M02 A304 RMK A01 T10151020  RH  096%=      5-min Rain = 0
KWE2 100421Z 34005KT M02/M02 A304 RMK A01 T10161021  RH  096%=      5-min Rain = 0
KWE2 100422Z 34005KT M02/M02 A304 RMK A01 T10161021  RH  096%=      5-min Rain = 0
KWE2 100423Z 33005KT M02/M02 A304 RMK A01 T10161022  RH  096%=      5-min Rain = 0
KWE2 100424Z 33004KT M02/M02 A304 RMK A01 T10161021  RH  096%=      5-min Rain = 0
KWE2 100425Z 33005KT M02/M02 A304 RMK A01 T10171022  RH  096%=      5-min Rain = 0
KWE2 100426Z 33005KT M02/M02 A304 RMK A01 T10161021  RH  097%=      5-min Rain = 0
KWE2 100427Z 33005KT M02/M02 A304 RMK A01 T10161021  RH  097%=      5-min Rain = 0
KWE2 100428Z 33005KT M02/M02 A304 RMK A01 T10161021  RH  097%=      5-min Rain = 0
KWE2 100429Z 33005KT M02/M02 A304 RMK A01 T10161021  RH  096%=      5-min Rain = 0
KWE2 100430Z 33005KT M02/M02 A304 RMK A01 T10161021  RH  096%=      5-min Rain = 0
KWE2 100431Z 32005KT M02/M02 A304 RMK A01 T10161021  RH  096%=      5-min Rain = 0
KWE2 100432Z 32005KT M02/M02 A304 RMK A01 T10161021  RH  096%=      5-min Rain = 0
KWE2 100433Z 32004KT M02/M02 A304 RMK A01 T10161021  RH  097%=      5-min Rain = 0
KWE2 100434Z 32005KT M02/M02 A304 RMK A01 T10161020  RH  097%=      5-min Rain = 0
KWE2 100435Z 31005KT M02/M02 A304 RMK A01 T10151020  RH  097%=      5-min Rain = 0
KWE2 100436Z 31005KT M01/M02 A304 RMK A01 T10141019  RH  096%=      5-min Rain = 0
KWE2 100437Z 32005KT M01/M02 A304 RMK A01 T10141019  RH  096%=      5-min Rain = 0
KWE2 100438Z 31005KT M01/M02 A304 RMK A01 T10141018  RH  096%=      5-min Rain = 0
KWE2 100439Z 31005KT M01/M02 A304 RMK A01 T10131019  RH  096%=      5-min Rain = 0
KWE2 100440Z 31005KT M01/M02 A304 RMK A01 T10141019  RH  096%=      5-min Rain = 0
KWE2 100441Z 31005KT M01/M02 A304 RMK A01 T10141019  RH  096%=      5-min Rain = 0
KWE2 100442Z 31005KT M01/M02 A304 RMK A01 T10141020  RH  095%=      5-min Rain = 0
KWE2 100443Z 31005KT M02/M02 A304 RMK A01 T10151021  RH  095%=      5-min Rain = 0
KWE2 100444Z 31005KT M02/M02 A304 RMK A01 T10151021  RH  095%=      5-min Rain = 0
KWE2 100445Z 31005KT M02/M02 A304 RMK A01 T10151022  RH  095%=      5-min Rain = 0
KWE2 100446Z 31005KT M02/M02 A304 RMK A01 T10151022  RH  096%=      5-min Rain = 0
KWE2 100447Z 31005KT M02/M02 A304 RMK A01 T10151021  RH  096%=      5-min Rain = 0
KWE2 100448Z 31005KT M02/M02 A304 RMK A01 T10151021  RH  096%=      5-min Rain = 0
KWE2 100449Z 31006KT M02/M02 A304 RMK A01 T10151021  RH  096%=      5-min Rain = 0
KWE2 100450Z 31006KT M02/M02 A304 RMK A01 T10151020  RH  097%=      5-min Rain = 0
KWE2 100451Z 31006KT M01/M02 A304 RMK A01 T10141019  RH  097%=      5-min Rain = 0
KWE2 100452Z 31006KT M01/M02 A304 RMK A01 T10131017  RH  097%=      5-min Rain = 0
KWE2 100453Z 31006KT M01/M02 A304 RMK A01 T10121017  RH  097%=      5-min Rain = 0
KWE2 100454Z 31006KT M01/M02 A304 RMK A01 T10121017  RH  096%=      5-min Rain = 0
KWE2 100455Z 31006KT M01/M02 A304 RMK A01 T10121017  RH  096%=      5-min Rain = 0
KWE2 100456Z 31006KT M01/M02 A304 RMK A01 T10111017  RH  096%=      5-min Rain = 0
KWE2 100457Z 31006KT M01/M02 A304 RMK A01 T10111017  RH  096%=      5-min Rain = 0
KWE2 100458Z 31007KT M01/M02 A304 RMK A01 T10101016  RH  095%=      5-min Rain = 0
KWE2 100459Z 31006KT M01/M02 A304 RMK A01 T10091016  RH  095%=      5-min Rain = 0
KWE2 100500Z 31005KT M01/M02 A304 RMK A01 T10081015  RH  095%=      5-min Rain = 0
KWE2 100501Z 31006KT M01/M02 A304 RMK A01 T10081016  RH  094%=      5-min Rain = 0
KWE2 100502Z 31006KT M01/M02 A304 RMK A01 T10081016  RH  094%=      5-min Rain = 0
KWE2 100503Z 31006KT M01/M02 A304 RMK A01 T10071016  RH  094%=      5-min Rain = 0
KWE2 100504Z 31006KT M01/M02 A304 RMK A01 T10071016  RH  094%=      5-min Rain = 0
KWE2 100505Z 31006KT M01/M02 A304 RMK A01 T10061015  RH  094%=      5-min Rain = 0
KWE2 100506Z 31006KT M01/M02 A304 RMK A01 T10061015  RH  093%=      5-min Rain = 0
KWE2 100507Z 31005KT M01/M02 A304 RMK A01 T10051015  RH  093%=      5-min Rain = 0
KWE2 100508Z 31005KT M01/M02 A304 RMK A01 T10051016  RH  093%=      5-min Rain = 0
KWE2 100509Z 30005KT M01/M02 A304 RMK A01 T10061016  RH  093%=      5-min Rain = 0
KWE2 100510Z 30005KT M01/M02 A304 RMK A01 T10061016  RH  093%=      5-min Rain = 0
KWE2 100511Z 30005KT M01/M02 A304 RMK A01 T10061016  RH  093%=      5-min Rain = 0
KWE2 100512Z 30005KT M01/M02 A304 RMK A01 T10071017  RH  093%=      5-min Rain = 0
KWE2 100513Z 30005KT M01/M02 A304 RMK A01 T10071017  RH  093%=      5-min Rain = 0
KWE2 100514Z 30005KT M01/M02 A304 RMK A01 T10071017  RH  093%=      5-min Rain = 0
KWE2 100515Z 30005KT M01/M02 A304 RMK A01 T10071017  RH  093%=      5-min Rain = 0
KWE2 100516Z 30005KT M01/M02 A304 RMK A01 T10081017  RH  094%=      5-min Rain = 0
KWE2 100517Z 30005KT M01/M02 A304 RMK A01 T10081016  RH  094%=      5-min Rain = 0
KWE2 100518Z 30006KT M01/M02 A304 RMK A01 T10071016  RH  094%=      5-min Rain = 0
KWE2 100519Z 30006KT M01/M02 A304 RMK A01 T10071015  RH  094%=      5-min Rain = 0
KWE2 100520Z 30005KT M01/M02 A304 RMK A01 T10061015  RH  094%=      5-min Rain = 0
KWE2 100521Z 30005KT M01/M02 A304 RMK A01 T10061015  RH  094%=      5-min Rain = 0
KWE2 100522Z 30005KT M01/M02 A304 RMK A01 T10051015  RH  093%=      5-min Rain = 0
KWE2 100523Z 30006KT M01/M02 A304 RMK A01 T10051015  RH  093%=      5-min Rain = 0
KWE2 100524Z 30005KT M01/M02 A304 RMK A01 T10051015  RH  093%=      5-min Rain = 0
KWE2 100525Z 29005KT M01/M02 A304 RMK A01 T10051015  RH  093%=      5-min Rain = 0
KWE2 100526Z 29005KT M01/M02 A304 RMK A01 T10051015  RH  093%=      5-min Rain = 0
KWE2 100527Z 29005KT M01/M02 A304 RMK A01 T10051015  RH  093%=      5-min Rain = 0
KWE2 100528Z 29005KT M01/M02 A304 RMK A01 T10051015  RH  093%=      5-min Rain = 0
KWE2 100529Z 29005KT M01/M02 A304 RMK A01 T10051015  RH  093%=      5-min Rain = 0
KWE2 100530Z 30005KT M01/M02 A304 RMK A01 T10051015  RH  093%=      5-min Rain = 0
KWE2 100531Z 30004KT M01/M02 A304 RMK A01 T10051016  RH  093%=      5-min Rain = 0
KWE2 100532Z 30004KT M01/M02 A304 RMK A01 T10051016  RH  093%=      5-min Rain = 0
KWE2 100533Z 30004KT M01/M02 A304 RMK A01 T10061016  RH  093%=      5-min Rain = 0
KWE2 100534Z 30004KT M01/M02 A304 RMK A01 T10061017  RH  093%=      5-min Rain = 0
KWE2 100535Z 30004KT M01/M02 A304 RMK A01 T10071017  RH  093%=      5-min Rain = 0
KWE2 100536Z 30003KT M01/M02 A304 RMK A01 T10071017  RH  093%=      5-min Rain = 0
KWE2 100537Z 30004KT M01/M02 A304 RMK A01 T10071017  RH  093%=      5-min Rain = 0
KWE2 100538Z 30004KT M01/M02 A304 RMK A01 T10071017  RH  093%=      5-min Rain = 0
KWE2 100539Z 30005KT M01/M02 A304 RMK A01 T10071017  RH  093%=      5-min Rain = 0
KWE2 100540Z 30005KT M01/M02 A304 RMK A01 T10071017  RH  093%=      5-min Rain = 0
KWE2 100541Z 30005KT M01/M02 A304 RMK A01 T10071017  RH  093%=      5-min Rain = 0
KWE2 100542Z 30004KT M01/M02 A304 RMK A01 T10071017  RH  093%=      5-min Rain = 0
KWE2 100543Z 30004KT M01/M02 A304 RMK A01 T10071017  RH  093%=      5-min Rain = 0
KWE2 100544Z 30004KT M01/M02 A304 RMK A01 T10081017  RH  093%=      5-min Rain = 0
KWE2 100545Z 30004KT M01/M02 A304 RMK A01 T10081017  RH  093%=      5-min Rain = 0
KWE2 100546Z 30004KT M01/M02 A304 RMK A01 T10081017  RH  094%=      5-min Rain = 0
KWE2 100547Z 31004KT M01/M02 A304 RMK A01 T10081017  RH  093%=      5-min Rain = 0
KWE2 100548Z 31004KT M01/M02 A304 RMK A01 T10091018  RH  094%=      5-min Rain = 0
KWE2 100549Z 31004KT M01/M02 A304 RMK A01 T10091018  RH  094%=      5-min Rain = 0
KWE2 100550Z 31004KT M01/M02 A3039 RMK A01 T10091018  RH  094%=      5-min Rain = 0
KWE2 100551Z 31004KT M01/M02 A3039 RMK A01 T10101019  RH  093%=      5-min Rain = 0
KWE2 100552Z 31004KT M01/M02 A3039 RMK A01 T10101020  RH  093%=      5-min Rain = 0
KWE2 100553Z 31004KT M01/M02 A3039 RMK A01 T10111020  RH  093%=      5-min Rain = 0
KWE2 100554Z 31004KT M01/M02 A3039 RMK A01 T10111020  RH  094%=      5-min Rain = 0
KWE2 100555Z 31003KT M01/M02 A3039 RMK A01 T10111019  RH  094%=      5-min Rain = 0
KWE2 100556Z 30003KT M01/M02 A3039 RMK A01 T10111020  RH  094%=      5-min Rain = 0
KWE2 100557Z 30003KT M01/M02 A3039 RMK A01 T10111019  RH  094%=      5-min Rain = 0
KWE2 100558Z 30003KT M01/M02 A3039 RMK A01 T10111020  RH  094%=      5-min Rain = 0
KWE2 100559Z 29003KT M01/M02 A3039 RMK A01 T10111019  RH  094%=      5-min Rain = 0

Page generated in 0.1691 seconds.